Time,TemperatureF,DewpointF,PressureIn,WindDirection,WindDirectionDegrees,WindSpeedMPH,WindSpeedGustMPH,Humidity,HourlyPrecipIn,Conditions,Clouds,dailyrainin,SoftwareType,DateUTC
2013-03-24 00:00:00,36.4,23.0,29.91,WSW,248,0.0,1.0,58,0.00,,---,0.00,VWS V13.01,2013-03-24 04:00:00,
2013-03-24 00:01:00,36.4,22.6,29.92,WSW,248,0.0,0.0,57,0.00,,---,0.00,VWS V13.01,2013-03-24 04:01:00,
2013-03-24 00:02:00,36.4,23.0,29.91,WSW,248,0.0,0.0,58,0.00,,---,0.00,VWS V13.01,2013-03-24 04:02:00,
2013-03-24 00:03:00,36.4,22.6,29.92,WSW,248,0.0,0.0,57,0.00,,---,0.00,VWS V13.01,2013-03-24 04:03:00,
2013-03-24 00:04:00,36.4,22.6,29.92,SW,225,0.0,1.0,57,0.00,,---,0.00,VWS V13.01,2013-03-24 04:04:00,
2013-03-24 00:05:00,36.4,22.6,29.92,SW,225,2.0,9.0,57,0.00,,---,0.00,VWS V13.01,2013-03-24 04:05:00,
2013-03-24 00:06:00,36.4,22.6,29.92,WSW,248,0.0,1.0,57,0.00,,---,0.00,VWS V13.01,2013-03-24 04:06:00,
2013-03-24 00:07:00,36.4,22.6,29.92,WSW,248,0.0,0.0,57,0.00,,---,0.00,VWS V13.01,2013-03-24 04:07:00,
2013-03-24 00:08:00,36.4,22.6,29.92,WSW,248,0.0,0.0,57,0.00,,---,0.00,VWS V13.01,2013-03-24 04:08:00,
2013-03-24 00:09:00,36.4,22.6,29.92,WSW,248,0.0,1.0,57,0.00,,---,0.00,VWS V13.01,2013-03-24 04:09:00,
2013-03-24 00:10:00,36.5,22.7,29.92,WSW,248,0.0,0.0,57,0.00,,---,0.00,VWS V13.01,2013-03-24 04:10:00,
2013-03-24 00:11:00,36.5,22.7,29.92,WSW,248,0.0,0.0,57,0.00,,---,0.00,VWS V13.01,2013-03-24 04:11:00,
2013-03-24 00:12:00,36.6,22.8,29.92,WSW,248,1.0,3.0,57,0.00,,---,0.00,VWS V13.01,2013-03-24 04:12:00,
2013-03-24 00:13:00,36.6,22.8,29.92,WSW,248,1.0,2.0,57,0.00,,---,0.00,VWS V13.01,2013-03-24 04:13:00,
2013-03-24 00:14:00,36.6,22.8,29.92,WSW,248,0.0,1.0,57,0.00,,---,0.00,VWS V13.01,2013-03-24 04:14:00,
2013-03-24 00:15:00,36.6,22.8,29.92,West,270,1.0,2.0,57,0.00,,---,0.00,VWS V13.01,2013-03-24 04:15:00,
2013-03-24 00:16:00,36.6,22.8,29.92,WSW,248,2.0,3.0,57,0.00,,---,0.00,VWS V13.01,2013-03-24 04:16:00,
2013-03-24 00:17:00,36.7,22.9,29.92,WSW,248,1.0,2.0,57,0.00,,---,0.00,VWS V13.01,2013-03-24 04:17:00,
2013-03-24 00:18:00,36.7,22.9,29.92,WSW,248,1.0,1.0,57,0.00,,---,0.00,VWS V13.01,2013-03-24 04:18:00,
2013-03-24 00:19:00,36.7,22.5,29.92,WSW,248,0.0,0.0,56,0.00,,---,0.00,VWS V13.01,2013-03-24 04:19:00,
2013-03-24 00:20:00,36.7,22.5,29.92,WSW,248,0.0,1.0,56,0.00,,---,0.00,VWS V13.01,2013-03-24 04:20:00,
2013-03-24 00:21:00,36.8,22.6,29.92,WNW,292,1.0,2.0,56,0.00,,---,0.00,VWS V13.01,2013-03-24 04:21:00,
2013-03-24 00:22:00,36.8,22.6,29.92,WNW,292,0.0,0.0,56,0.00,,---,0.00,VWS V13.01,2013-03-24 04:22:00,
2013-03-24 00:23:00,36.8,22.6,29.92,WNW,292,0.0,0.0,56,0.00,,---,0.00,VWS V13.01,2013-03-24 04:23:00,
2013-03-24 00:24:00,36.8,22.6,29.92,West,270,1.0,3.0,56,0.00,,---,0.00,VWS V13.01,2013-03-24 04:24:00,
2013-03-24 00:25:00,36.9,22.7,29.92,West,270,1.0,2.0,56,0.00,,---,0.00,VWS V13.01,2013-03-24 04:25:00,
2013-03-24 00:26:00,36.9,22.7,29.92,West,270,0.0,1.0,56,0.00,,---,0.00,VWS V13.01,2013-03-24 04:26:00,
2013-03-24 00:27:00,36.9,22.7,29.92,WNW,292,0.0,1.0,56,0.00,,---,0.00,VWS V13.01,2013-03-24 04:27:00,
2013-03-24 00:28:00,36.9,22.7,29.92,West,270,1.0,2.0,56,0.00,,---,0.00,VWS V13.01,2013-03-24 04:28:00,
2013-03-24 00:29:00,36.9,22.7,29.92,West,270,0.0,1.0,56,0.00,,---,0.00,VWS V13.01,2013-03-24 04:29:00,
2013-03-24 00:30:00,36.9,22.7,29.92,West,270,0.0,1.0,56,0.00,,---,0.00,VWS V13.01,2013-03-24 04:30:00,
2013-03-24 00:31:00,36.8,22.6,29.92,West,270,1.0,3.0,56,0.00,,---,0.00,VWS V13.01,2013-03-24 04:31:00,
2013-03-24 00:32:00,36.8,22.6,29.92,WNW,292,2.0,3.0,56,0.00,,---,0.00,VWS V13.01,2013-03-24 04:32:00,
2013-03-24 00:33:00,36.8,22.6,29.92,West,270,2.0,5.0,56,0.00,,---,0.00,VWS V13.01,2013-03-24 04:33:00,
2013-03-24 00:34:00,36.8,22.6,29.92,West,270,2.0,3.0,56,0.00,,---,0.00,VWS V13.01,2013-03-24 04:34:00,
2013-03-24 00:35:00,36.8,22.6,29.91,West,270,1.0,2.0,56,0.00,,---,0.00,VWS V13.01,2013-03-24 04:35:00,
2013-03-24 00:36:00,36.8,22.6,29.91,West,270,0.0,1.0,56,0.00,,---,0.00,VWS V13.01,2013-03-24 04:36:00,
2013-03-24 00:37:00,36.9,22.7,29.91,WSW,248,0.0,1.0,56,0.00,,---,0.00,VWS V13.01,2013-03-24 04:37:00,
2013-03-24 00:38:00,36.9,22.7,29.91,WSW,248,0.0,0.0,56,0.00,,---,0.00,VWS V13.01,2013-03-24 04:38:00,
2013-03-24 00:39:00,36.9,22.7,29.91,SW,225,0.0,1.0,56,0.00,,---,0.00,VWS V13.01,2013-03-24 04:39:00,
2013-03-24 00:40:00,36.9,22.7,29.91,SW,225,0.0,0.0,56,0.00,,---,0.00,VWS V13.01,2013-03-24 04:40:00,
2013-03-24 00:41:00,36.9,22.3,29.91,West,270,1.0,2.0,55,0.00,,---,0.00,VWS V13.01,2013-03-24 04:41:00,
2013-03-24 00:42:00,36.9,22.3,29.92,West,270,2.0,3.0,55,0.00,,---,0.00,VWS V13.01,2013-03-24 04:42:00,
2013-03-24 00:43:00,36.9,22.3,29.92,West,270,0.0,1.0,55,0.00,,---,0.00,VWS V13.01,2013-03-24 04:43:00,
2013-03-24 00:44:00,36.9,22.7,29.92,West,270,0.0,1.0,56,0.00,,---,0.00,VWS V13.01,2013-03-24 04:44:00,
2013-03-24 00:45:00,36.9,22.3,29.92,West,270,1.0,2.0,55,0.00,,---,0.00,VWS V13.01,2013-03-24 04:45:00,
2013-03-24 00:46:00,36.9,22.3,29.92,West,270,0.0,0.0,55,0.00,,---,0.00,VWS V13.01,2013-03-24 04:46:00,
2013-03-24 00:47:00,36.9,22.3,29.92,West,270,0.0,0.0,55,0.00,,---,0.00,VWS V13.01,2013-03-24 04:47:00,
2013-03-24 00:48:00,36.9,22.3,29.91,West,270,0.0,0.0,55,0.00,,---,0.00,VWS V13.01,2013-03-24 04:48:00,
2013-03-24 00:49:00,36.9,22.3,29.91,West,270,0.0,1.0,55,0.00,,---,0.00,VWS V13.01,2013-03-24 04:49:00,
2013-03-24 00:50:00,36.9,22.3,29.91,West,270,0.0,0.0,55,0.00,,---,0.00,VWS V13.01,2013-03-24 04:50:00,
2013-03-24 00:51:00,36.9,22.3,29.91,West,270,0.0,1.0,55,0.00,,---,0.00,VWS V13.01,2013-03-24 04:51:00,
2013-03-24 00:52:00,36.9,22.3,29.91,West,270,0.0,0.0,55,0.00,,---,0.00,VWS V13.01,2013-03-24 04:52:00,
2013-03-24 00:53:00,36.9,22.3,29.91,West,270,0.0,0.0,55,0.00,,---,0.00,VWS V13.01,2013-03-24 04:53:00,
2013-03-24 00:54:00,36.8,22.2,29.92,West,270,0.0,0.0,55,0.00,,---,0.00,VWS V13.01,2013-03-24 04:54:00,
2013-03-24 00:55:00,36.8,22.6,29.92,West,270,0.0,0.0,56,0.00,,---,0.00,VWS V13.01,2013-03-24 04:55:00,
2013-03-24 00:56:00,36.8,22.6,29.92,West,270,0.0,0.0,56,0.00,,---,0.00,VWS V13.01,2013-03-24 04:56:00,
2013-03-24 00:57:00,36.8,22.6,29.92,West,270,0.0,0.0,56,0.00,,---,0.00,VWS V13.01,2013-03-24 04:57:00,
2013-03-24 00:58:00,36.7,22.5,29.92,West,270,0.0,0.0,56,0.00,,---,0.00,VWS V13.01,2013-03-24 04:58:00,
2013-03-24 00:59:00,36.7,22.5,29.92,West,270,0.0,0.0,56,0.00,,---,0.00,VWS V13.01,2013-03-24 04:59:00,
2013-03-24 01:00:00,36.6,22.4,29.92,West,270,0.0,0.0,56,0.00,,---,0.00,VWS V13.01,2013-03-24 05:00:00,
2013-03-24 01:01:00,36.6,22.4,29.92,West,270,0.0,0.0,56,0.00,,---,0.00,VWS V13.01,2013-03-24 05:01:00,
2013-03-24 01:02:00,36.5,22.3,29.92,West,270,0.0,0.0,56,0.00,,---,0.00,VWS V13.01,2013-03-24 05:02:00,
2013-03-24 01:03:00,36.4,22.2,29.92,West,270,0.0,0.0,56,0.00,,---,0.00,VWS V13.01,2013-03-24 05:03:00,
2013-03-24 01:04:00,36.4,22.2,29.92,West,270,0.0,0.0,56,0.00,,---,0.00,VWS V13.01,2013-03-24 05:04:00,
2013-03-24 01:05:00,36.4,22.6,29.92,West,270,0.0,0.0,57,0.00,,---,0.00,VWS V13.01,2013-03-24 05:05:00,
2013-03-24 01:06:00,36.3,22.1,29.93,West,270,0.0,0.0,56,0.00,,---,0.00,VWS V13.01,2013-03-24 05:06:00,
2013-03-24 01:07:00,36.2,22.0,29.93,West,270,0.0,0.0,56,0.00,,---,0.00,VWS V13.01,2013-03-24 05:07:00,
2013-03-24 01:08:00,36.1,22.4,29.93,West,270,0.0,0.0,57,0.00,,---,0.00,VWS V13.01,2013-03-24 05:08:00,
2013-03-24 01:09:00,36.1,22.4,29.93,West,270,0.0,0.0,57,0.00,,---,0.00,VWS V13.01,2013-03-24 05:09:00,
2013-03-24 01:10:00,36.0,22.3,29.93,West,270,0.0,0.0,57,0.00,,---,0.00,VWS V13.01,2013-03-24 05:10:00,
2013-03-24 01:11:00,35.9,22.2,29.93,West,270,0.0,0.0,57,0.00,,---,0.00,VWS V13.01,2013-03-24 05:11:00,
2013-03-24 01:12:00,35.9,22.2,29.93,West,270,0.0,0.0,57,0.00,,---,0.00,VWS V13.01,2013-03-24 05:12:00,
2013-03-24 01:13:00,35.8,22.5,29.93,West,270,0.0,0.0,58,0.00,,---,0.00,VWS V13.01,2013-03-24 05:13:00,
2013-03-24 01:14:00,35.7,22.4,29.93,West,270,0.0,0.0,58,0.00,,---,0.00,VWS V13.01,2013-03-24 05:14:00,
2013-03-24 01:15:00,35.6,22.7,29.93,West,270,0.0,0.0,59,0.00,,---,0.00,VWS V13.01,2013-03-24 05:15:00,
2013-03-24 01:16:00,35.5,22.6,29.93,West,270,0.0,0.0,59,0.00,,---,0.00,VWS V13.01,2013-03-24 05:16:00,
2013-03-24 01:17:00,35.5,22.6,29.93,West,270,0.0,0.0,59,0.00,,---,0.00,VWS V13.01,2013-03-24 05:17:00,
2013-03-24 01:18:00,35.4,22.9,29.93,West,270,0.0,0.0,60,0.00,,---,0.00,VWS V13.01,2013-03-24 05:18:00,
2013-03-24 01:19:00,35.3,22.8,29.93,West,270,0.0,0.0,60,0.00,,---,0.00,VWS V13.01,2013-03-24 05:19:00,
2013-03-24 01:20:00,35.2,22.7,29.92,West,270,0.0,0.0,60,0.00,,---,0.00,VWS V13.01,2013-03-24 05:20:00,
2013-03-24 01:21:00,35.1,22.6,29.92,West,270,0.0,0.0,60,0.00,,---,0.00,VWS V13.01,2013-03-24 05:21:00,
2013-03-24 01:22:00,35.1,22.6,29.92,West,270,0.0,0.0,60,0.00,,---,0.00,VWS V13.01,2013-03-24 05:22:00,
2013-03-24 01:23:00,35.0,22.5,29.93,West,270,0.0,0.0,60,0.00,,---,0.00,VWS V13.01,2013-03-24 05:23:00,
2013-03-24 01:24:00,34.9,22.4,29.92,West,270,0.0,0.0,60,0.00,,---,0.00,VWS V13.01,2013-03-24 05:24:00,
2013-03-24 01:25:00,34.8,22.3,29.92,West,270,0.0,0.0,60,0.00,,---,0.00,VWS V13.01,2013-03-24 05:25:00,
2013-03-24 01:26:00,34.7,22.2,29.92,West,270,0.0,0.0,60,0.00,,---,0.00,VWS V13.01,2013-03-24 05:26:00,
2013-03-24 01:27:00,34.6,22.5,29.93,West,270,0.0,0.0,61,0.00,,---,0.00,VWS V13.01,2013-03-24 05:27:00,
2013-03-24 01:28:00,34.6,22.5,29.93,West,270,0.0,0.0,61,0.00,,---,0.00,VWS V13.01,2013-03-24 05:28:00,
2013-03-24 01:29:00,34.5,22.5,29.93,West,270,0.0,0.0,61,0.00,,---,0.00,VWS V13.01,2013-03-24 05:29:00,
2013-03-24 01:30:00,34.4,22.4,29.93,West,270,0.0,0.0,61,0.00,,---,0.00,VWS V13.01,2013-03-24 05:30:00,
2013-03-24 01:31:00,34.3,22.3,29.93,West,270,0.0,0.0,61,0.00,,---,0.00,VWS V13.01,2013-03-24 05:31:00,
2013-03-24 01:32:00,34.2,22.5,29.93,West,270,0.0,0.0,62,0.00,,---,0.00,VWS V13.01,2013-03-24 05:32:00,
2013-03-24 01:33:00,34.1,22.5,29.93,West,270,0.0,0.0,62,0.00,,---,0.00,VWS V13.01,2013-03-24 05:33:00,
2013-03-24 01:34:00,34.1,22.5,29.93,West,270,0.0,0.0,62,0.00,,---,0.00,VWS V13.01,2013-03-24 05:34:00,
2013-03-24 01:35:00,34.0,22.4,29.93,West,270,0.0,0.0,62,0.00,,---,0.00,VWS V13.01,2013-03-24 05:35:00,
2013-03-24 01:36:00,33.9,22.3,29.93,West,270,0.0,0.0,62,0.00,,---,0.00,VWS V13.01,2013-03-24 05:36:00,
2013-03-24 01:37:00,33.9,22.3,29.93,West,270,0.0,0.0,62,0.00,,---,0.00,VWS V13.01,2013-03-24 05:37:00,
2013-03-24 01:38:00,33.8,22.2,29.93,West,270,0.0,0.0,62,0.00,,---,0.00,VWS V13.01,2013-03-24 05:38:00,
2013-03-24 01:39:00,33.8,22.2,29.93,West,270,0.0,0.0,62,0.00,,---,0.00,VWS V13.01,2013-03-24 05:39:00,
2013-03-24 01:40:00,33.7,22.1,29.93,West,270,0.0,0.0,62,0.00,,---,0.00,VWS V13.01,2013-03-24 05:40:00,
2013-03-24 01:41:00,33.7,22.5,29.93,West,270,0.0,0.0,63,0.00,,---,0.00,VWS V13.01,2013-03-24 05:41:00,
2013-03-24 01:42:00,33.6,22.7,29.93,West,270,0.0,0.0,64,0.00,,---,0.00,VWS V13.01,2013-03-24 05:42:00,
2013-03-24 01:43:00,33.5,22.6,29.93,WSW,248,0.0,1.0,64,0.00,,---,0.00,VWS V13.01,2013-03-24 05:43:00,
2013-03-24 01:44:00,33.4,22.5,29.93,WSW,248,0.0,1.0,64,0.00,,---,0.00,VWS V13.01,2013-03-24 05:44:00,
2013-03-24 01:45:00,33.4,22.5,29.93,WSW,248,0.0,1.0,64,0.00,,---,0.00,VWS V13.01,2013-03-24 05:45:00,
2013-03-24 01:46:00,33.3,22.5,29.93,WSW,248,0.0,0.0,64,0.00,,---,0.00,VWS V13.01,2013-03-24 05:46:00,
2013-03-24 01:47:00,33.3,22.5,29.93,WSW,248,0.0,0.0,64,0.00,,---,0.00,VWS V13.01,2013-03-24 05:47:00,
2013-03-24 01:48:00,33.2,22.4,29.93,WSW,248,0.0,0.0,64,0.00,,---,0.00,VWS V13.01,2013-03-24 05:48:00,
2013-03-24 01:49:00,33.2,22.7,29.92,WSW,248,0.0,0.0,65,0.00,,---,0.00,VWS V13.01,2013-03-24 05:49:00,
2013-03-24 01:50:00,33.1,22.3,29.93,WSW,248,0.0,0.0,64,0.00,,---,0.00,VWS V13.01,2013-03-24 05:50:00,
2013-03-24 01:51:00,33.1,22.6,29.93,WSW,248,0.0,0.0,65,0.00,,---,0.00,VWS V13.01,2013-03-24 05:51:00,
2013-03-24 01:52:00,33.1,22.6,29.93,WSW,248,0.0,0.0,65,0.00,,---,0.00,VWS V13.01,2013-03-24 05:52:00,
2013-03-24 01:53:00,33.1,22.6,29.93,WSW,248,0.0,0.0,65,0.00,,---,0.00,VWS V13.01,2013-03-24 05:53:00,
2013-03-24 01:54:00,33.1,22.6,29.92,WSW,248,0.0,0.0,65,0.00,,---,0.00,VWS V13.01,2013-03-24 05:54:00,
2013-03-24 01:55:00,33.0,22.2,29.93,WSW,248,0.0,0.0,64,0.00,,---,0.00,VWS V13.01,2013-03-24 05:55:00,
2013-03-24 01:56:00,33.0,22.2,29.93,WSW,248,0.0,0.0,64,0.00,,---,0.00,VWS V13.01,2013-03-24 05:56:00,
2013-03-24 01:57:00,33.0,22.2,29.93,WSW,248,0.0,0.0,64,0.00,,---,0.00,VWS V13.01,2013-03-24 05:57:00,
2013-03-24 01:58:00,33.0,22.2,29.92,WSW,248,0.0,0.0,64,0.00,,---,0.00,VWS V13.01,2013-03-24 05:58:00,
2013-03-24 01:59:00,33.0,22.2,29.92,WSW,248,0.0,0.0,64,0.00,,---,0.00,VWS V13.01,2013-03-24 05:59:00,
2013-03-24 02:00:00,32.9,22.1,29.93,WSW,248,0.0,0.0,64,0.00,,---,0.00,VWS V13.01,2013-03-24 06:00:00,
2013-03-24 02:01:00,32.9,22.1,29.93,WSW,248,0.0,0.0,64,0.00,,---,0.00,VWS V13.01,2013-03-24 06:01:00,
2013-03-24 02:02:00,32.9,22.4,29.93,WSW,248,0.0,0.0,65,0.00,,---,0.00,VWS V13.01,2013-03-24 06:02:00,
2013-03-24 02:03:00,32.9,22.4,29.93,WSW,248,0.0,0.0,65,0.00,,---,0.00,VWS V13.01,2013-03-24 06:03:00,
2013-03-24 02:04:00,32.8,22.3,29.92,WSW,248,0.0,0.0,65,0.00,,---,0.00,VWS V13.01,2013-03-24 06:04:00,
2013-03-24 02:05:00,32.8,22.3,29.93,WSW,248,0.0,0.0,65,0.00,,---,0.00,VWS V13.01,2013-03-24 06:05:00,
2013-03-24 02:06:00,32.8,22.3,29.93,WSW,248,0.0,0.0,65,0.00,,---,0.00,VWS V13.01,2013-03-24 06:06:00,
2013-03-24 02:07:00,32.8,22.3,29.93,WSW,248,0.0,0.0,65,0.00,,---,0.00,VWS V13.01,2013-03-24 06:07:00,
2013-03-24 02:08:00,32.7,22.2,29.93,WSW,248,0.0,0.0,65,0.00,,---,0.00,VWS V13.01,2013-03-24 06:08:00,
2013-03-24 02:09:00,32.6,22.1,29.93,SW,225,0.0,1.0,65,0.00,,---,0.00,VWS V13.01,2013-03-24 06:09:00,
2013-03-24 02:10:00,32.6,22.1,29.92,SW,225,0.0,0.0,65,0.00,,---,0.00,VWS V13.01,2013-03-24 06:10:00,
2013-03-24 02:11:00,32.6,22.1,29.93,SW,225,0.0,0.0,65,0.00,,---,0.00,VWS V13.01,2013-03-24 06:11:00,
2013-03-24 02:12:00,32.5,22.1,29.92,SW,225,0.0,0.0,65,0.00,,---,0.00,VWS V13.01,2013-03-24 06:12:00,
2013-03-24 02:13:00,32.5,22.1,29.93,SW,225,0.0,0.0,65,0.00,,---,0.00,VWS V13.01,2013-03-24 06:13:00,
2013-03-24 02:14:00,32.5,22.1,29.92,SW,225,0.0,0.0,65,0.00,,---,0.00,VWS V13.01,2013-03-24 06:14:00,
2013-03-24 02:15:00,32.4,22.0,29.92,SW,225,0.0,0.0,65,0.00,,---,0.00,VWS V13.01,2013-03-24 06:15:00,
2013-03-24 02:16:00,32.4,22.3,29.92,SW,225,0.0,0.0,66,0.00,,---,0.00,VWS V13.01,2013-03-24 06:16:00,
2013-03-24 02:17:00,32.4,22.3,29.92,SW,225,0.0,1.0,66,0.00,,---,0.00,VWS V13.01,2013-03-24 06:17:00,
2013-03-24 02:18:00,32.4,22.3,29.92,SW,225,0.0,0.0,66,0.00,,---,0.00,VWS V13.01,2013-03-24 06:18:00,
2013-03-24 02:19:00,32.4,22.3,29.92,SW,225,0.0,0.0,66,0.00,,---,0.00,VWS V13.01,2013-03-24 06:19:00,
2013-03-24 02:20:00,32.4,22.3,29.91,SW,225,0.0,0.0,66,0.00,,---,0.00,VWS V13.01,2013-03-24 06:20:00,
2013-03-24 02:21:00,32.4,22.0,29.91,SW,225,0.0,0.0,65,0.00,,---,0.00,VWS V13.01,2013-03-24 06:21:00,
2013-03-24 02:22:00,32.4,22.0,29.91,SW,225,0.0,0.0,65,0.00,,---,0.00,VWS V13.01,2013-03-24 06:22:00,
2013-03-24 02:23:00,32.4,22.0,29.91,SW,225,0.0,1.0,65,0.00,,---,0.00,VWS V13.01,2013-03-24 06:23:00,
2013-03-24 02:24:00,32.5,22.1,29.91,SW,225,0.0,0.0,65,0.00,,---,0.00,VWS V13.01,2013-03-24 06:24:00,
2013-03-24 02:25:00,32.5,22.1,29.91,SW,225,0.0,0.0,65,0.00,,---,0.00,VWS V13.01,2013-03-24 06:25:00,
2013-03-24 02:26:00,32.6,22.1,29.90,SW,225,0.0,0.0,65,0.00,,---,0.00,VWS V13.01,2013-03-24 06:26:00,
2013-03-24 02:27:00,32.6,22.1,29.90,SW,225,0.0,0.0,65,0.00,,---,0.00,VWS V13.01,2013-03-24 06:27:00,
2013-03-24 02:28:00,32.7,21.9,29.90,SW,225,0.0,0.0,64,0.00,,---,0.00,VWS V13.01,2013-03-24 06:28:00,
2013-03-24 02:29:00,32.8,22.0,29.91,SW,225,0.0,0.0,64,0.00,,---,0.00,VWS V13.01,2013-03-24 06:29:00,
2013-03-24 02:30:00,32.8,22.0,29.90,SW,225,0.0,0.0,64,0.00,,---,0.00,VWS V13.01,2013-03-24 06:30:00,
2013-03-24 02:31:00,32.9,22.1,29.90,SW,225,0.0,0.0,64,0.00,,---,0.00,VWS V13.01,2013-03-24 06:31:00,
2013-03-24 02:32:00,33.0,21.8,29.90,SW,225,0.0,0.0,63,0.00,,---,0.00,VWS V13.01,2013-03-24 06:32:00,
2013-03-24 02:33:00,33.1,22.3,29.90,SW,225,0.0,0.0,64,0.00,,---,0.00,VWS V13.01,2013-03-24 06:33:00,
2013-03-24 02:34:00,33.2,22.0,29.90,SW,225,0.0,0.0,63,0.00,,---,0.00,VWS V13.01,2013-03-24 06:34:00,
2013-03-24 02:35:00,33.2,22.0,29.90,SW,225,0.0,0.0,63,0.00,,---,0.00,VWS V13.01,2013-03-24 06:35:00,
2013-03-24 02:36:00,33.3,22.1,29.90,SW,225,0.0,1.0,63,0.00,,---,0.00,VWS V13.01,2013-03-24 06:36:00,
2013-03-24 02:37:00,33.4,22.2,29.90,SW,225,0.0,0.0,63,0.00,,---,0.00,VWS V13.01,2013-03-24 06:37:00,
2013-03-24 02:38:00,33.4,22.2,29.90,SW,225,0.0,1.0,63,0.00,,---,0.00,VWS V13.01,2013-03-24 06:38:00,
2013-03-24 02:39:00,33.5,22.3,29.89,WSW,248,0.0,1.0,63,0.00,,---,0.00,VWS V13.01,2013-03-24 06:39:00,
2013-03-24 02:40:00,33.5,21.9,29.89,WSW,248,0.0,1.0,62,0.00,,---,0.00,VWS V13.01,2013-03-24 06:40:00,
2013-03-24 02:41:00,33.6,22.4,29.90,WSW,248,0.0,1.0,63,0.00,,---,0.00,VWS V13.01,2013-03-24 06:41:00,
2013-03-24 02:42:00,33.6,22.4,29.90,WSW,248,0.0,1.0,63,0.00,,---,0.00,VWS V13.01,2013-03-24 06:42:00,
2013-03-24 02:43:00,33.7,22.1,29.90,WSW,248,0.0,0.0,62,0.00,,---,0.00,VWS V13.01,2013-03-24 06:43:00,
2013-03-24 02:44:00,33.7,22.1,29.90,WSW,248,0.0,0.0,62,0.00,,---,0.00,VWS V13.01,2013-03-24 06:44:00,
2013-03-24 02:45:00,33.7,22.1,29.90,WSW,248,0.0,0.0,62,0.00,,---,0.00,VWS V13.01,2013-03-24 06:45:00,
2013-03-24 02:46:00,33.8,22.2,29.90,WSW,248,0.0,0.0,62,0.00,,---,0.00,VWS V13.01,2013-03-24 06:46:00,
2013-03-24 02:47:00,33.8,22.2,29.91,WSW,248,0.0,0.0,62,0.00,,---,0.00,VWS V13.01,2013-03-24 06:47:00,
2013-03-24 02:48:00,33.8,22.2,29.91,WSW,248,0.0,0.0,62,0.00,,---,0.00,VWS V13.01,2013-03-24 06:48:00,
2013-03-24 02:49:00,33.8,22.2,29.91,WSW,248,0.0,0.0,62,0.00,,---,0.00,VWS V13.01,2013-03-24 06:49:00,
2013-03-24 02:50:00,33.8,22.2,29.91,WSW,248,0.0,0.0,62,0.00,,---,0.00,VWS V13.01,2013-03-24 06:50:00,
2013-03-24 02:51:00,33.8,22.2,29.91,WSW,248,0.0,0.0,62,0.00,,---,0.00,VWS V13.01,2013-03-24 06:51:00,
2013-03-24 02:52:00,33.8,22.2,29.92,WSW,248,0.0,0.0,62,0.00,,---,0.00,VWS V13.01,2013-03-24 06:52:00,
2013-03-24 02:53:00,33.8,22.2,29.92,WSW,248,0.0,0.0,62,0.00,,---,0.00,VWS V13.01,2013-03-24 06:53:00,
2013-03-24 02:54:00,33.8,22.2,29.92,WSW,248,0.0,0.0,62,0.00,,---,0.00,VWS V13.01,2013-03-24 06:54:00,
2013-03-24 02:55:00,33.8,22.2,29.92,WSW,248,0.0,0.0,62,0.00,,---,0.00,VWS V13.01,2013-03-24 06:55:00,
2013-03-24 02:56:00,33.7,22.1,29.92,SW,225,0.0,1.0,62,0.00,,---,0.00,VWS V13.01,2013-03-24 06:56:00,
2013-03-24 02:57:00,33.7,22.1,29.92,SW,225,0.0,0.0,62,0.00,,---,0.00,VWS V13.01,2013-03-24 06:57:00,
2013-03-24 02:58:00,33.7,22.1,29.92,SW,225,0.0,0.0,62,0.00,,---,0.00,VWS V13.01,2013-03-24 06:58:00,
2013-03-24 02:59:00,33.6,22.0,29.93,SW,225,0.0,0.0,62,0.00,,---,0.00,VWS V13.01,2013-03-24 06:59:00,
2013-03-24 03:00:00,33.6,22.0,29.93,SW,225,0.0,1.0,62,0.00,,---,0.00,VWS V13.01,2013-03-24 07:00:00,
2013-03-24 03:01:00,33.5,21.9,29.93,SW,225,0.0,1.0,62,0.00,,---,0.00,VWS V13.01,2013-03-24 07:01:00,
2013-03-24 03:02:00,33.5,22.3,29.93,SW,225,0.0,1.0,63,0.00,,---,0.00,VWS V13.01,2013-03-24 07:02:00,
2013-03-24 03:03:00,33.5,22.3,29.93,SW,225,0.0,0.0,63,0.00,,---,0.00,VWS V13.01,2013-03-24 07:03:00,
2013-03-24 03:04:00,33.4,22.2,29.92,SW,225,0.0,0.0,63,0.00,,---,0.00,VWS V13.01,2013-03-24 07:04:00,
2013-03-24 03:05:00,33.4,22.2,29.92,SW,225,0.0,0.0,63,0.00,,---,0.00,VWS V13.01,2013-03-24 07:05:00,
2013-03-24 03:06:00,33.4,22.2,29.92,SW,225,0.0,1.0,63,0.00,,---,0.00,VWS V13.01,2013-03-24 07:06:00,
2013-03-24 03:07:00,33.3,22.1,29.92,SW,225,0.0,0.0,63,0.00,,---,0.00,VWS V13.01,2013-03-24 07:07:00,
2013-03-24 03:08:00,33.3,22.1,29.92,SW,225,0.0,0.0,63,0.00,,---,0.00,VWS V13.01,2013-03-24 07:08:00,
2013-03-24 03:09:00,33.2,22.0,29.92,SW,225,0.0,0.0,63,0.00,,---,0.00,VWS V13.01,2013-03-24 07:09:00,
2013-03-24 03:10:00,33.2,22.4,29.92,SW,225,0.0,0.0,64,0.00,,---,0.00,VWS V13.01,2013-03-24 07:10:00,
2013-03-24 03:11:00,33.1,22.3,29.92,SW,225,0.0,0.0,64,0.00,,---,0.00,VWS V13.01,2013-03-24 07:11:00,
2013-03-24 03:12:00,33.0,22.2,29.92,SW,225,0.0,0.0,64,0.00,,---,0.00,VWS V13.01,2013-03-24 07:12:00,
2013-03-24 03:13:00,33.0,22.5,29.92,SW,225,0.0,0.0,65,0.00,,---,0.00,VWS V13.01,2013-03-24 07:13:00,
2013-03-24 03:14:00,32.9,22.4,29.92,SW,225,0.0,0.0,65,0.00,,---,0.00,VWS V13.01,2013-03-24 07:14:00,
2013-03-24 03:15:00,32.8,22.3,29.92,SW,225,0.0,0.0,65,0.00,,---,0.00,VWS V13.01,2013-03-24 07:15:00,
2013-03-24 03:16:00,32.7,22.2,29.92,SW,225,0.0,0.0,65,0.00,,---,0.00,VWS V13.01,2013-03-24 07:16:00,
2013-03-24 03:17:00,32.7,22.2,29.92,SW,225,0.0,0.0,65,0.00,,---,0.00,VWS V13.01,2013-03-24 07:17:00,
2013-03-24 03:18:00,32.6,22.1,29.91,SW,225,0.0,0.0,65,0.00,,---,0.00,VWS V13.01,2013-03-24 07:18:00,
2013-03-24 03:19:00,32.5,22.1,29.91,SW,225,0.0,0.0,65,0.00,,---,0.00,VWS V13.01,2013-03-24 07:19:00,
2013-03-24 03:20:00,32.4,22.0,29.91,SW,225,0.0,0.0,65,0.00,,---,0.00,VWS V13.01,2013-03-24 07:20:00,
2013-03-24 03:21:00,32.4,22.0,29.91,SW,225,0.0,0.0,65,0.00,,---,0.00,VWS V13.01,2013-03-24 07:21:00,
2013-03-24 03:22:00,32.3,21.9,29.91,SW,225,0.0,0.0,65,0.00,,---,0.00,VWS V13.01,2013-03-24 07:22:00,
2013-03-24 03:23:00,32.3,21.9,29.91,SW,225,0.0,0.0,65,0.00,,---,0.00,VWS V13.01,2013-03-24 07:23:00,
2013-03-24 03:24:00,32.2,22.1,29.91,SW,225,0.0,0.0,66,0.00,,---,0.00,VWS V13.01,2013-03-24 07:24:00,
2013-03-24 03:25:00,32.1,22.0,29.91,SW,225,0.0,0.0,66,0.00,,---,0.00,VWS V13.01,2013-03-24 07:25:00,
2013-03-24 03:26:00,32.1,22.0,29.92,SW,225,0.0,0.0,66,0.00,,---,0.00,VWS V13.01,2013-03-24 07:26:00,
2013-03-24 03:27:00,32.0,21.9,29.91,SW,225,0.0,0.0,66,0.00,,---,0.00,VWS V13.01,2013-03-24 07:27:00,
2013-03-24 03:28:00,32.0,21.9,29.91,SW,225,0.0,0.0,66,0.00,,---,0.00,VWS V13.01,2013-03-24 07:28:00,
2013-03-24 03:29:00,31.9,21.9,29.92,SW,225,0.0,0.0,66,0.00,,---,0.00,VWS V13.01,2013-03-24 07:29:00,
2013-03-24 03:30:00,31.8,21.8,29.92,SW,225,0.0,0.0,66,0.00,,---,0.00,VWS V13.01,2013-03-24 07:30:00,
2013-03-24 03:31:00,31.8,21.8,29.91,SW,225,0.0,0.0,66,0.00,,---,0.00,VWS V13.01,2013-03-24 07:31:00,
2013-03-24 03:32:00,31.7,21.7,29.91,SW,225,0.0,0.0,66,0.00,,---,0.00,VWS V13.01,2013-03-24 07:32:00,
2013-03-24 03:33:00,31.7,21.7,29.91,SW,225,0.0,0.0,66,0.00,,---,0.00,VWS V13.01,2013-03-24 07:33:00,
2013-03-24 03:34:00,31.6,21.6,29.91,SW,225,0.0,0.0,66,0.00,,---,0.00,VWS V13.01,2013-03-24 07:34:00,
2013-03-24 03:35:00,31.6,21.9,29.91,SW,225,0.0,0.0,67,0.00,,---,0.00,VWS V13.01,2013-03-24 07:35:00,
2013-03-24 03:36:00,31.5,21.8,29.91,SW,225,0.0,0.0,67,0.00,,---,0.00,VWS V13.01,2013-03-24 07:36:00,
2013-03-24 03:37:00,31.5,21.8,29.91,SW,225,0.0,0.0,67,0.00,,---,0.00,VWS V13.01,2013-03-24 07:37:00,
2013-03-24 03:38:00,31.4,21.7,29.91,SW,225,0.0,0.0,67,0.00,,---,0.00,VWS V13.01,2013-03-24 07:38:00,
2013-03-24 03:39:00,31.4,21.7,29.91,SW,225,0.0,0.0,67,0.00,,---,0.00,VWS V13.01,2013-03-24 07:39:00,
2013-03-24 03:40:00,31.3,22.0,29.91,SW,225,0.0,0.0,68,0.00,,---,0.00,VWS V13.01,2013-03-24 07:40:00,
2013-03-24 03:41:00,31.3,22.0,29.91,SW,225,0.0,0.0,68,0.00,,---,0.00,VWS V13.01,2013-03-24 07:41:00,
2013-03-24 03:42:00,31.2,21.9,29.91,SW,225,0.0,0.0,68,0.00,,---,0.00,VWS V13.01,2013-03-24 07:42:00,
2013-03-24 03:43:00,31.2,21.9,29.91,SW,225,0.0,0.0,68,0.00,,---,0.00,VWS V13.01,2013-03-24 07:43:00,
2013-03-24 03:44:00,31.1,21.8,29.91,SW,225,0.0,0.0,68,0.00,,---,0.00,VWS V13.01,2013-03-24 07:44:00,
2013-03-24 03:45:00,31.1,22.1,29.91,SW,225,0.0,0.0,69,0.00,,---,0.00,VWS V13.01,2013-03-24 07:45:00,
2013-03-24 03:46:00,31.0,22.0,29.91,SW,225,0.0,0.0,69,0.00,,---,0.00,VWS V13.01,2013-03-24 07:46:00,
2013-03-24 03:47:00,31.0,22.0,29.91,SW,225,0.0,0.0,69,0.00,,---,0.00,VWS V13.01,2013-03-24 07:47:00,
2013-03-24 03:48:00,31.0,22.0,29.91,SW,225,0.0,0.0,69,0.00,,---,0.00,VWS V13.01,2013-03-24 07:48:00,
2013-03-24 03:49:00,30.9,21.9,29.91,SW,225,0.0,0.0,69,0.00,,---,0.00,VWS V13.01,2013-03-24 07:49:00,
2013-03-24 03:50:00,30.9,21.9,29.91,SW,225,0.0,0.0,69,0.00,,---,0.00,VWS V13.01,2013-03-24 07:50:00,
2013-03-24 03:51:00,30.9,21.9,29.91,SW,225,0.0,0.0,69,0.00,,---,0.00,VWS V13.01,2013-03-24 07:51:00,
2013-03-24 03:52:00,30.8,21.9,29.91,SW,225,0.0,0.0,69,0.00,,---,0.00,VWS V13.01,2013-03-24 07:52:00,
2013-03-24 03:53:00,30.8,21.9,29.91,SW,225,0.0,0.0,69,0.00,,---,0.00,VWS V13.01,2013-03-24 07:53:00,
2013-03-24 03:54:00,30.8,21.9,29.91,SW,225,0.0,0.0,69,0.00,,---,0.00,VWS V13.01,2013-03-24 07:54:00,
2013-03-24 03:55:00,30.8,21.9,29.91,SW,225,0.0,0.0,69,0.00,,---,0.00,VWS V13.01,2013-03-24 07:55:00,
2013-03-24 03:56:00,30.7,21.8,29.91,SW,225,0.0,0.0,69,0.00,,---,0.00,VWS V13.01,2013-03-24 07:56:00,
2013-03-24 03:57:00,30.7,21.8,29.91,SW,225,0.0,0.0,69,0.00,,---,0.00,VWS V13.01,2013-03-24 07:57:00,
2013-03-24 03:58:00,30.7,21.8,29.91,SW,225,0.0,0.0,69,0.00,,---,0.00,VWS V13.01,2013-03-24 07:58:00,
2013-03-24 03:59:00,30.6,22.0,29.91,SW,225,0.0,0.0,70,0.00,,---,0.00,VWS V13.01,2013-03-24 07:59:00,
2013-03-24 04:00:00,30.6,22.0,29.91,SW,225,0.0,0.0,70,0.00,,---,0.00,VWS V13.01,2013-03-24 08:00:00,
2013-03-24 04:01:00,30.6,22.0,29.91,SW,225,0.0,0.0,70,0.00,,---,0.00,VWS V13.01,2013-03-24 08:01:00,
2013-03-24 04:02:00,30.5,21.9,29.91,SW,225,0.0,0.0,70,0.00,,---,0.00,VWS V13.01,2013-03-24 08:02:00,
2013-03-24 04:03:00,30.5,21.9,29.91,SW,225,0.0,0.0,70,0.00,,---,0.00,VWS V13.01,2013-03-24 08:03:00,
2013-03-24 04:04:00,30.5,21.9,29.91,SW,225,0.0,0.0,70,0.00,,---,0.00,VWS V13.01,2013-03-24 08:04:00,
2013-03-24 04:05:00,30.4,21.8,29.91,SW,225,0.0,0.0,70,0.00,,---,0.00,VWS V13.01,2013-03-24 08:05:00,
2013-03-24 04:06:00,30.4,21.8,29.91,SW,225,0.0,0.0,70,0.00,,---,0.00,VWS V13.01,2013-03-24 08:06:00,
2013-03-24 04:07:00,30.3,21.7,29.91,SW,225,0.0,0.0,70,0.00,,---,0.00,VWS V13.01,2013-03-24 08:07:00,
2013-03-24 04:08:00,30.3,21.7,29.91,SW,225,0.0,0.0,70,0.00,,---,0.00,VWS V13.01,2013-03-24 08:08:00,
2013-03-24 04:09:00,30.3,21.7,29.91,SW,225,0.0,0.0,70,0.00,,---,0.00,VWS V13.01,2013-03-24 08:09:00,
2013-03-24 04:10:00,30.3,21.7,29.91,SW,225,0.0,0.0,70,0.00,,---,0.00,VWS V13.01,2013-03-24 08:10:00,
2013-03-24 04:11:00,30.3,21.7,29.91,SW,225,0.0,0.0,70,0.00,,---,0.00,VWS V13.01,2013-03-24 08:11:00,
2013-03-24 04:12:00,30.3,21.7,29.91,SW,225,0.0,0.0,70,0.00,,---,0.00,VWS V13.01,2013-03-24 08:12:00,
2013-03-24 04:13:00,30.3,21.7,29.91,SW,225,0.0,0.0,70,0.00,,---,0.00,VWS V13.01,2013-03-24 08:13:00,
2013-03-24 04:14:00,30.3,21.7,29.91,SW,225,0.0,0.0,70,0.00,,---,0.00,VWS V13.01,2013-03-24 08:14:00,
2013-03-24 04:15:00,30.3,21.7,29.91,SW,225,0.0,0.0,70,0.00,,---,0.00,VWS V13.01,2013-03-24 08:15:00,
2013-03-24 04:16:00,30.3,21.7,29.91,SW,225,0.0,0.0,70,0.00,,---,0.00,VWS V13.01,2013-03-24 08:16:00,
2013-03-24 04:17:00,30.3,21.7,29.91,SW,225,0.0,1.0,70,0.00,,---,0.00,VWS V13.01,2013-03-24 08:17:00,
2013-03-24 04:18:00,30.3,21.7,29.91,SW,225,0.0,1.0,70,0.00,,---,0.00,VWS V13.01,2013-03-24 08:18:00,
2013-03-24 04:19:00,30.3,21.7,29.91,SW,225,0.0,0.0,70,0.00,,---,0.00,VWS V13.01,2013-03-24 08:19:00,
2013-03-24 04:20:00,30.3,22.0,29.91,SW,225,0.0,0.0,71,0.00,,---,0.00,VWS V13.01,2013-03-24 08:20:00,
2013-03-24 04:21:00,30.3,22.0,29.91,SW,225,0.0,0.0,71,0.00,,---,0.00,VWS V13.01,2013-03-24 08:21:00,
2013-03-24 04:22:00,30.3,22.0,29.91,SW,225,0.0,1.0,71,0.00,,---,0.00,VWS V13.01,2013-03-24 08:22:00,
2013-03-24 04:23:00,30.3,22.0,29.91,SW,225,0.0,0.0,71,0.00,,---,0.00,VWS V13.01,2013-03-24 08:23:00,
2013-03-24 04:24:00,30.2,21.9,29.91,SW,225,0.0,0.0,71,0.00,,---,0.00,VWS V13.01,2013-03-24 08:24:00,
2013-03-24 04:25:00,30.2,21.9,29.91,SW,225,0.0,0.0,71,0.00,,---,0.00,VWS V13.01,2013-03-24 08:25:00,
2013-03-24 04:26:00,30.2,21.9,29.91,SW,225,0.0,0.0,71,0.00,,---,0.00,VWS V13.01,2013-03-24 08:26:00,
2013-03-24 04:27:00,30.2,21.9,29.91,SW,225,0.0,0.0,71,0.00,,---,0.00,VWS V13.01,2013-03-24 08:27:00,
2013-03-24 04:28:00,30.2,21.9,29.91,SW,225,0.0,0.0,71,0.00,,---,0.00,VWS V13.01,2013-03-24 08:28:00,
2013-03-24 04:29:00,30.2,21.9,29.91,SW,225,0.0,0.0,71,0.00,,---,0.00,VWS V13.01,2013-03-24 08:29:00,
2013-03-24 04:30:00,30.1,21.9,29.92,SW,225,0.0,0.0,71,0.00,,---,0.00,VWS V13.01,2013-03-24 08:30:00,
2013-03-24 04:31:00,30.1,21.9,29.92,SW,225,0.0,0.0,71,0.00,,---,0.00,VWS V13.01,2013-03-24 08:31:00,
2013-03-24 04:32:00,30.1,21.9,29.92,SW,225,0.0,0.0,71,0.00,,---,0.00,VWS V13.01,2013-03-24 08:32:00,
2013-03-24 04:33:00,30.1,21.9,29.92,SW,225,0.0,0.0,71,0.00,,---,0.00,VWS V13.01,2013-03-24 08:33:00,
2013-03-24 04:34:00,30.0,21.8,29.92,SW,225,0.0,1.0,71,0.00,,---,0.00,VWS V13.01,2013-03-24 08:34:00,
2013-03-24 04:35:00,30.0,21.8,29.92,SW,225,0.0,0.0,71,0.00,,---,0.00,VWS V13.01,2013-03-24 08:35:00,
2013-03-24 04:36:00,29.9,21.7,29.92,SW,225,0.0,1.0,71,0.00,,---,0.00,VWS V13.01,2013-03-24 08:36:00,
2013-03-24 04:37:00,29.9,21.7,29.92,SW,225,0.0,0.0,71,0.00,,---,0.00,VWS V13.01,2013-03-24 08:37:00,
2013-03-24 04:38:00,29.9,21.7,29.92,SW,225,0.0,0.0,71,0.00,,---,0.00,VWS V13.01,2013-03-24 08:38:00,
2013-03-24 04:39:00,29.9,21.7,29.92,SW,225,0.0,0.0,71,0.00,,---,0.00,VWS V13.01,2013-03-24 08:39:00,
2013-03-24 04:40:00,29.9,22.0,29.91,SW,225,0.0,0.0,72,0.00,,---,0.00,VWS V13.01,2013-03-24 08:40:00,
2013-03-24 04:41:00,29.8,21.9,29.91,SW,225,0.0,1.0,72,0.00,,---,0.00,VWS V13.01,2013-03-24 08:41:00,
2013-03-24 04:42:00,29.8,21.9,29.91,SW,225,0.0,1.0,72,0.00,,---,0.00,VWS V13.01,2013-03-24 08:42:00,
2013-03-24 04:43:00,29.8,22.2,29.91,SW,225,0.0,0.0,73,0.00,,---,0.00,VWS V13.01,2013-03-24 08:43:00,
2013-03-24 04:44:00,29.8,22.2,29.91,SW,225,0.0,0.0,73,0.00,,---,0.00,VWS V13.01,2013-03-24 08:44:00,
2013-03-24 04:45:00,29.7,22.1,29.91,SW,225,0.0,0.0,73,0.00,,---,0.00,VWS V13.01,2013-03-24 08:45:00,
2013-03-24 04:46:00,29.7,22.1,29.91,SW,225,0.0,0.0,73,0.00,,---,0.00,VWS V13.01,2013-03-24 08:46:00,
2013-03-24 04:47:00,29.7,22.1,29.91,SW,225,0.0,0.0,73,0.00,,---,0.00,VWS V13.01,2013-03-24 08:47:00,
2013-03-24 04:48:00,29.6,21.7,29.91,SW,225,0.0,0.0,72,0.00,,---,0.00,VWS V13.01,2013-03-24 08:48:00,
2013-03-24 04:49:00,29.6,21.7,29.91,SW,225,0.0,0.0,72,0.00,,---,0.00,VWS V13.01,2013-03-24 08:49:00,
2013-03-24 04:50:00,29.6,21.7,29.91,SW,225,0.0,1.0,72,0.00,,---,0.00,VWS V13.01,2013-03-24 08:50:00,
2013-03-24 04:51:00,29.5,21.6,29.92,SW,225,0.0,1.0,72,0.00,,---,0.00,VWS V13.01,2013-03-24 08:51:00,
2013-03-24 04:52:00,29.5,21.6,29.91,SW,225,0.0,0.0,72,0.00,,---,0.00,VWS V13.01,2013-03-24 08:52:00,
2013-03-24 04:53:00,29.5,21.6,29.91,SW,225,0.0,0.0,72,0.00,,---,0.00,VWS V13.01,2013-03-24 08:53:00,
2013-03-24 04:54:00,29.4,21.5,29.91,SW,225,0.0,0.0,72,0.00,,---,0.00,VWS V13.01,2013-03-24 08:54:00,
2013-03-24 04:55:00,29.4,21.5,29.92,SW,225,0.0,0.0,72,0.00,,---,0.00,VWS V13.01,2013-03-24 08:55:00,
2013-03-24 04:56:00,29.4,21.5,29.91,SW,225,0.0,0.0,72,0.00,,---,0.00,VWS V13.01,2013-03-24 08:56:00,
2013-03-24 04:57:00,29.3,21.4,29.92,SW,225,0.0,0.0,72,0.00,,---,0.00,VWS V13.01,2013-03-24 08:57:00,
2013-03-24 04:58:00,29.3,21.4,29.91,SW,225,0.0,0.0,72,0.00,,---,0.00,VWS V13.01,2013-03-24 08:58:00,
2013-03-24 04:59:00,29.3,21.4,29.91,SW,225,0.0,0.0,72,0.00,,---,0.00,VWS V13.01,2013-03-24 08:59:00,
2013-03-24 05:00:00,29.2,21.3,29.91,SW,225,0.0,0.0,72,0.00,,---,0.00,VWS V13.01,2013-03-24 09:00:00,
2013-03-24 05:01:00,29.2,21.3,29.92,SW,225,0.0,1.0,72,0.00,,---,0.00,VWS V13.01,2013-03-24 09:01:00,
2013-03-24 05:02:00,29.2,21.6,29.92,SW,225,0.0,0.0,73,0.00,,---,0.00,VWS V13.01,2013-03-24 09:02:00,
2013-03-24 05:03:00,29.2,21.6,29.91,SW,225,0.0,1.0,73,0.00,,---,0.00,VWS V13.01,2013-03-24 09:03:00,
2013-03-24 05:04:00,29.2,21.6,29.91,SW,225,0.0,0.0,73,0.00,,---,0.00,VWS V13.01,2013-03-24 09:04:00,
2013-03-24 05:05:00,29.2,21.6,29.91,SW,225,0.0,1.0,73,0.00,,---,0.00,VWS V13.01,2013-03-24 09:05:00,
2013-03-24 05:06:00,29.1,21.5,29.91,WSW,248,1.0,3.0,73,0.00,,---,0.00,VWS V13.01,2013-03-24 09:06:00,
2013-03-24 05:07:00,29.1,21.5,29.91,WSW,248,0.0,0.0,73,0.00,,---,0.00,VWS V13.01,2013-03-24 09:07:00,
2013-03-24 05:08:00,29.1,21.5,29.91,WSW,248,0.0,0.0,73,0.00,,---,0.00,VWS V13.01,2013-03-24 09:08:00,
2013-03-24 05:09:00,29.1,21.5,29.91,WSW,248,0.0,0.0,73,0.00,,---,0.00,VWS V13.01,2013-03-24 09:09:00,
2013-03-24 05:10:00,29.1,21.5,29.91,WSW,248,0.0,0.0,73,0.00,,---,0.00,VWS V13.01,2013-03-24 09:10:00,
2013-03-24 05:11:00,29.0,21.4,29.91,WSW,248,0.0,0.0,73,0.00,,---,0.00,VWS V13.01,2013-03-24 09:11:00,
2013-03-24 05:12:00,29.0,21.4,29.91,SW,225,0.0,1.0,73,0.00,,---,0.00,VWS V13.01,2013-03-24 09:12:00,
2013-03-24 05:13:00,29.0,21.4,29.92,SW,225,0.0,0.0,73,0.00,,---,0.00,VWS V13.01,2013-03-24 09:13:00,
2013-03-24 05:14:00,29.0,21.4,29.91,SW,225,0.0,0.0,73,0.00,,---,0.00,VWS V13.01,2013-03-24 09:14:00,
2013-03-24 05:15:00,29.0,21.4,29.92,SW,225,0.0,0.0,73,0.00,,---,0.00,VWS V13.01,2013-03-24 09:15:00,
2013-03-24 05:16:00,29.0,21.4,29.92,SW,225,0.0,1.0,73,0.00,,---,0.00,VWS V13.01,2013-03-24 09:16:00,
2013-03-24 05:17:00,29.0,21.4,29.92,SW,225,0.0,0.0,73,0.00,,---,0.00,VWS V13.01,2013-03-24 09:17:00,
2013-03-24 05:18:00,29.0,21.4,29.92,SW,225,0.0,0.0,73,0.00,,---,0.00,VWS V13.01,2013-03-24 09:18:00,
2013-03-24 05:19:00,29.0,21.4,29.92,SW,225,0.0,0.0,73,0.00,,---,0.00,VWS V13.01,2013-03-24 09:19:00,
2013-03-24 05:20:00,28.9,21.4,29.92,SW,225,0.0,0.0,73,0.00,,---,0.00,VWS V13.01,2013-03-24 09:20:00,
2013-03-24 05:21:00,28.9,21.4,29.92,SW,225,0.0,0.0,73,0.00,,---,0.00,VWS V13.01,2013-03-24 09:21:00,
2013-03-24 05:22:00,28.9,21.7,29.92,SW,225,0.0,0.0,74,0.00,,---,0.00,VWS V13.01,2013-03-24 09:22:00,
2013-03-24 05:23:00,28.9,21.7,29.91,SW,225,0.0,1.0,74,0.00,,---,0.00,VWS V13.01,2013-03-24 09:23:00,
2013-03-24 05:24:00,28.9,21.7,29.91,SW,225,0.0,0.0,74,0.00,,---,0.00,VWS V13.01,2013-03-24 09:24:00,
2013-03-24 05:25:00,28.9,21.7,29.91,SW,225,0.0,1.0,74,0.00,,---,0.00,VWS V13.01,2013-03-24 09:25:00,
2013-03-24 05:26:00,29.0,21.8,29.92,SW,225,0.0,0.0,74,0.00,,---,0.00,VWS V13.01,2013-03-24 09:26:00,
2013-03-24 05:27:00,29.0,21.8,29.92,SW,225,0.0,1.0,74,0.00,,---,0.00,VWS V13.01,2013-03-24 09:27:00,
2013-03-24 05:28:00,29.0,21.8,29.92,SW,225,0.0,0.0,74,0.00,,---,0.00,VWS V13.01,2013-03-24 09:28:00,
2013-03-24 05:29:00,29.0,21.8,29.92,SW,225,0.0,1.0,74,0.00,,---,0.00,VWS V13.01,2013-03-24 09:29:00,
2013-03-24 05:30:00,29.0,21.8,29.92,SSW,202,0.0,1.0,74,0.00,,---,0.00,VWS V13.01,2013-03-24 09:30:00,
2013-03-24 05:31:00,29.0,21.4,29.92,SSW,202,0.0,0.0,73,0.00,,---,0.00,VWS V13.01,2013-03-24 09:31:00,
2013-03-24 05:32:00,29.0,21.4,29.92,SSW,202,0.0,0.0,73,0.00,,---,0.00,VWS V13.01,2013-03-24 09:32:00,
2013-03-24 05:33:00,29.1,21.5,29.92,SSW,202,0.0,0.0,73,0.00,,---,0.00,VWS V13.01,2013-03-24 09:33:00,
2013-03-24 05:34:00,29.0,21.4,29.92,SSW,202,0.0,0.0,73,0.00,,---,0.00,VWS V13.01,2013-03-24 09:34:00,
2013-03-24 05:35:00,29.1,21.5,29.92,SSW,202,0.0,0.0,73,0.00,,---,0.00,VWS V13.01,2013-03-24 09:35:00,
2013-03-24 05:36:00,29.1,21.5,29.92,SSW,202,0.0,0.0,73,0.00,,---,0.00,VWS V13.01,2013-03-24 09:36:00,
2013-03-24 05:37:00,29.1,21.5,29.92,SSW,202,0.0,0.0,73,0.00,,---,0.00,VWS V13.01,2013-03-24 09:37:00,
2013-03-24 05:38:00,29.1,21.5,29.92,SSW,202,0.0,0.0,73,0.00,,---,0.00,VWS V13.01,2013-03-24 09:38:00,
2013-03-24 05:39:00,29.1,21.5,29.92,SSW,202,0.0,0.0,73,0.00,,---,0.00,VWS V13.01,2013-03-24 09:39:00,
2013-03-24 05:40:00,29.1,21.5,29.92,SSW,202,0.0,1.0,73,0.00,,---,0.00,VWS V13.01,2013-03-24 09:40:00,
2013-03-24 05:41:00,29.1,21.5,29.92,SSW,202,0.0,0.0,73,0.00,,---,0.00,VWS V13.01,2013-03-24 09:41:00,
2013-03-24 05:42:00,29.2,21.6,29.92,WSW,248,0.0,1.0,73,0.00,,---,0.00,VWS V13.01,2013-03-24 09:42:00,
2013-03-24 05:43:00,29.2,21.6,29.93,WSW,248,0.0,0.0,73,0.00,,---,0.00,VWS V13.01,2013-03-24 09:43:00,
2013-03-24 05:44:00,29.2,21.6,29.93,WSW,248,0.0,0.0,73,0.00,,---,0.00,VWS V13.01,2013-03-24 09:44:00,
2013-03-24 05:45:00,29.2,21.6,29.93,WSW,248,0.0,1.0,73,0.00,,---,0.00,VWS V13.01,2013-03-24 09:45:00,
2013-03-24 05:46:00,29.2,21.6,29.93,WSW,248,0.0,0.0,73,0.00,,---,0.00,VWS V13.01,2013-03-24 09:46:00,
2013-03-24 05:47:00,29.2,21.6,29.93,WSW,248,0.0,0.0,73,0.00,,---,0.00,VWS V13.01,2013-03-24 09:47:00,
2013-03-24 05:48:00,29.2,21.6,29.93,WSW,248,0.0,0.0,73,0.00,,---,0.00,VWS V13.01,2013-03-24 09:48:00,
2013-03-24 05:49:00,29.2,21.6,29.93,WSW,248,0.0,0.0,73,0.00,,---,0.00,VWS V13.01,2013-03-24 09:49:00,
2013-03-24 05:50:00,29.2,21.6,29.93,WSW,248,0.0,0.0,73,0.00,,---,0.00,VWS V13.01,2013-03-24 09:50:00,
2013-03-24 05:51:00,29.2,21.6,29.93,WSW,248,0.0,0.0,73,0.00,,---,0.00,VWS V13.01,2013-03-24 09:51:00,
2013-03-24 05:52:00,29.3,21.7,29.93,WSW,248,0.0,0.0,73,0.00,,---,0.00,VWS V13.01,2013-03-24 09:52:00,
2013-03-24 05:53:00,29.2,21.6,29.93,WSW,248,0.0,0.0,73,0.00,,---,0.00,VWS V13.01,2013-03-24 09:53:00,
2013-03-24 05:54:00,29.3,21.7,29.93,WSW,248,0.0,0.0,73,0.00,,---,0.00,VWS V13.01,2013-03-24 09:54:00,
2013-03-24 05:55:00,29.3,21.7,29.93,WSW,248,0.0,0.0,73,0.00,,---,0.00,VWS V13.01,2013-03-24 09:55:00,
2013-03-24 05:56:00,29.3,21.7,29.93,WSW,248,0.0,0.0,73,0.00,,---,0.00,VWS V13.01,2013-03-24 09:56:00,
2013-03-24 05:57:00,29.3,21.7,29.93,WSW,248,0.0,0.0,73,0.00,,---,0.00,VWS V13.01,2013-03-24 09:57:00,
2013-03-24 05:58:00,29.3,21.7,29.94,WSW,248,0.0,0.0,73,0.00,,---,0.00,VWS V13.01,2013-03-24 09:58:00,
2013-03-24 05:59:00,29.2,21.6,29.94,WSW,248,0.0,0.0,73,0.00,,---,0.00,VWS V13.01,2013-03-24 09:59:00,
2013-03-24 06:00:00,29.2,21.6,29.94,SW,225,0.0,1.0,73,0.00,,---,0.00,VWS V13.01,2013-03-24 10:00:00,
2013-03-24 06:01:00,29.2,21.6,29.93,SW,225,0.0,0.0,73,0.00,,---,0.00,VWS V13.01,2013-03-24 10:01:00,
2013-03-24 06:02:00,29.2,21.6,29.94,SW,225,0.0,0.0,73,0.00,,---,0.00,VWS V13.01,2013-03-24 10:02:00,
2013-03-24 06:03:00,29.2,21.6,29.94,SW,225,0.0,0.0,73,0.00,,---,0.00,VWS V13.01,2013-03-24 10:03:00,
2013-03-24 06:04:00,29.2,21.6,29.94,SW,225,0.0,0.0,73,0.00,,---,0.00,VWS V13.01,2013-03-24 10:04:00,
2013-03-24 06:05:00,29.2,21.6,29.94,SW,225,0.0,0.0,73,0.00,,---,0.00,VWS V13.01,2013-03-24 10:05:00,
2013-03-24 06:06:00,29.2,21.6,29.94,SW,225,0.0,0.0,73,0.00,,---,0.00,VWS V13.01,2013-03-24 10:06:00,
2013-03-24 06:07:00,29.2,21.6,29.94,SW,225,0.0,1.0,73,0.00,,---,0.00,VWS V13.01,2013-03-24 10:07:00,
2013-03-24 06:08:00,29.2,21.6,29.94,WSW,248,0.0,1.0,73,0.00,,---,0.00,VWS V13.01,2013-03-24 10:08:00,
2013-03-24 06:09:00,29.2,21.6,29.94,WSW,248,0.0,0.0,73,0.00,,---,0.00,VWS V13.01,2013-03-24 10:09:00,
2013-03-24 06:10:00,29.2,21.6,29.94,WSW,248,0.0,1.0,73,0.00,,---,0.00,VWS V13.01,2013-03-24 10:10:00,
2013-03-24 06:11:00,29.2,21.6,29.94,WSW,248,0.0,0.0,73,0.00,,---,0.00,VWS V13.01,2013-03-24 10:11:00,
2013-03-24 06:12:00,29.1,21.5,29.94,WSW,248,0.0,0.0,73,0.00,,---,0.00,VWS V13.01,2013-03-24 10:12:00,
2013-03-24 06:13:00,29.1,21.5,29.94,WSW,248,0.0,0.0,73,0.00,,---,0.00,VWS V13.01,2013-03-24 10:13:00,
2013-03-24 06:14:00,29.1,21.5,29.94,WSW,248,0.0,0.0,73,0.00,,---,0.00,VWS V13.01,2013-03-24 10:14:00,
2013-03-24 06:15:00,29.1,21.5,29.94,WSW,248,0.0,0.0,73,0.00,,---,0.00,VWS V13.01,2013-03-24 10:15:00,
2013-03-24 06:16:00,29.1,21.5,29.94,WSW,248,0.0,0.0,73,0.00,,---,0.00,VWS V13.01,2013-03-24 10:16:00,
2013-03-24 06:17:00,29.0,21.4,29.94,WSW,248,0.0,1.0,73,0.00,,---,0.00,VWS V13.01,2013-03-24 10:17:00,
2013-03-24 06:18:00,29.0,21.4,29.94,WSW,248,0.0,0.0,73,0.00,,---,0.00,VWS V13.01,2013-03-24 10:18:00,
2013-03-24 06:19:00,29.0,21.4,29.94,WSW,248,0.0,0.0,73,0.00,,---,0.00,VWS V13.01,2013-03-24 10:19:00,
2013-03-24 06:20:00,29.0,21.4,29.94,WSW,248,0.0,0.0,73,0.00,,---,0.00,VWS V13.01,2013-03-24 10:20:00,
2013-03-24 06:21:00,29.0,21.4,29.94,WSW,248,0.0,0.0,73,0.00,,---,0.00,VWS V13.01,2013-03-24 10:21:00,
2013-03-24 06:22:00,29.0,21.4,29.94,WSW,248,0.0,0.0,73,0.00,,---,0.00,VWS V13.01,2013-03-24 10:22:00,
2013-03-24 06:23:00,29.0,21.4,29.94,WSW,248,0.0,0.0,73,0.00,,---,0.00,VWS V13.01,2013-03-24 10:23:00,
2013-03-24 06:24:00,29.0,21.4,29.94,WSW,248,0.0,0.0,73,0.00,,---,0.00,VWS V13.01,2013-03-24 10:24:00,
2013-03-24 06:25:00,29.0,21.4,29.94,WSW,248,0.0,0.0,73,0.00,,---,0.00,VWS V13.01,2013-03-24 10:25:00,
2013-03-24 06:26:00,29.0,21.4,29.94,WSW,248,0.0,0.0,73,0.00,,---,0.00,VWS V13.01,2013-03-24 10:26:00,
2013-03-24 06:27:00,29.0,21.4,29.94,WSW,248,0.0,0.0,73,0.00,,---,0.00,VWS V13.01,2013-03-24 10:27:00,
2013-03-24 06:28:00,28.9,21.4,29.94,WSW,248,0.0,0.0,73,0.00,,---,0.00,VWS V13.01,2013-03-24 10:28:00,
2013-03-24 06:29:00,28.9,21.4,29.93,WSW,248,0.0,0.0,73,0.00,,---,0.00,VWS V13.01,2013-03-24 10:29:00,
2013-03-24 06:30:00,28.9,21.4,29.93,WSW,248,0.0,0.0,73,0.00,,---,0.00,VWS V13.01,2013-03-24 10:30:00,
2013-03-24 06:31:00,28.9,21.4,29.93,WSW,248,0.0,0.0,73,0.00,,---,0.00,VWS V13.01,2013-03-24 10:31:00,
2013-03-24 06:32:00,28.9,21.7,29.93,WSW,248,0.0,0.0,74,0.00,,---,0.00,VWS V13.01,2013-03-24 10:32:00,
2013-03-24 06:33:00,28.9,21.7,29.93,WSW,248,0.0,0.0,74,0.00,,---,0.00,VWS V13.01,2013-03-24 10:33:00,
2013-03-24 06:34:00,28.9,21.7,29.93,WSW,248,0.0,0.0,74,0.00,,---,0.00,VWS V13.01,2013-03-24 10:34:00,
2013-03-24 06:35:00,28.9,21.7,29.93,WSW,248,0.0,0.0,74,0.00,,---,0.00,VWS V13.01,2013-03-24 10:35:00,
2013-03-24 06:36:00,28.9,21.7,29.93,WSW,248,0.0,0.0,74,0.00,,---,0.00,VWS V13.01,2013-03-24 10:36:00,
2013-03-24 06:37:00,28.9,21.7,29.93,WSW,248,0.0,0.0,74,0.00,,---,0.00,VWS V13.01,2013-03-24 10:37:00,
2013-03-24 06:38:00,28.9,21.7,29.93,WSW,248,0.0,0.0,74,0.00,,---,0.00,VWS V13.01,2013-03-24 10:38:00,
2013-03-24 06:39:00,28.9,21.7,29.93,WSW,248,0.0,0.0,74,0.00,,---,0.00,VWS V13.01,2013-03-24 10:39:00,
2013-03-24 06:40:00,28.9,21.7,29.93,WSW,248,0.0,0.0,74,0.00,,---,0.00,VWS V13.01,2013-03-24 10:40:00,
2013-03-24 06:41:00,28.9,21.7,29.93,WSW,248,0.0,0.0,74,0.00,,---,0.00,VWS V13.01,2013-03-24 10:41:00,
2013-03-24 06:42:00,28.9,21.7,29.93,WSW,248,0.0,0.0,74,0.00,,---,0.00,VWS V13.01,2013-03-24 10:42:00,
2013-03-24 06:43:00,28.9,21.7,29.93,WSW,248,0.0,0.0,74,0.00,,---,0.00,VWS V13.01,2013-03-24 10:43:00,
2013-03-24 06:44:00,28.8,21.6,29.93,WSW,248,0.0,0.0,74,0.00,,---,0.00,VWS V13.01,2013-03-24 10:44:00,
2013-03-24 06:45:00,28.8,21.6,29.93,WSW,248,0.0,0.0,74,0.00,,---,0.00,VWS V13.01,2013-03-24 10:45:00,
2013-03-24 06:46:00,28.8,21.6,29.93,WSW,248,0.0,0.0,74,0.00,,---,0.00,VWS V13.01,2013-03-24 10:46:00,
2013-03-24 06:47:00,28.8,21.6,29.93,WSW,248,0.0,0.0,74,0.00,,---,0.00,VWS V13.01,2013-03-24 10:47:00,
2013-03-24 06:48:00,28.8,21.6,29.93,WSW,248,0.0,0.0,74,0.00,,---,0.00,VWS V13.01,2013-03-24 10:48:00,
2013-03-24 06:49:00,28.8,21.6,29.93,WSW,248,0.0,0.0,74,0.00,,---,0.00,VWS V13.01,2013-03-24 10:49:00,
2013-03-24 06:50:00,28.8,21.6,29.93,WSW,248,0.0,0.0,74,0.00,,---,0.00,VWS V13.01,2013-03-24 10:50:00,
2013-03-24 06:51:00,28.7,21.5,29.93,WSW,248,0.0,0.0,74,0.00,,---,0.00,VWS V13.01,2013-03-24 10:51:00,
2013-03-24 06:52:00,28.7,21.5,29.93,WSW,248,0.0,0.0,74,0.00,,---,0.00,VWS V13.01,2013-03-24 10:52:00,
2013-03-24 06:53:00,28.7,21.1,29.93,WSW,248,0.0,0.0,73,0.00,,---,0.00,VWS V13.01,2013-03-24 10:53:00,
2013-03-24 06:54:00,28.7,21.5,29.93,WSW,248,0.0,0.0,74,0.00,,---,0.00,VWS V13.01,2013-03-24 10:54:00,
2013-03-24 06:55:00,28.6,21.4,29.93,WSW,248,0.0,0.0,74,0.00,,---,0.00,VWS V13.01,2013-03-24 10:55:00,
2013-03-24 06:56:00,28.6,21.4,29.93,WSW,248,0.0,0.0,74,0.00,,---,0.00,VWS V13.01,2013-03-24 10:56:00,
2013-03-24 06:57:00,28.6,21.4,29.93,WSW,248,0.0,0.0,74,0.00,,---,0.00,VWS V13.01,2013-03-24 10:57:00,
2013-03-24 06:58:00,28.6,21.4,29.93,WSW,248,0.0,0.0,74,0.00,,---,0.00,VWS V13.01,2013-03-24 10:58:00,
2013-03-24 06:59:00,28.6,21.4,29.93,WSW,248,0.0,0.0,74,0.00,,---,0.00,VWS V13.01,2013-03-24 10:59:00,
2013-03-24 07:00:00,28.6,21.4,29.93,WSW,248,0.0,0.0,74,0.00,,---,0.00,VWS V13.01,2013-03-24 11:00:00,
2013-03-24 07:01:00,28.5,21.3,29.93,WSW,248,0.0,0.0,74,0.00,,---,0.00,VWS V13.01,2013-03-24 11:01:00,
2013-03-24 07:02:00,28.5,21.3,29.93,WSW,248,0.0,0.0,74,0.00,,---,0.00,VWS V13.01,2013-03-24 11:02:00,
2013-03-24 07:03:00,28.5,21.3,29.93,WSW,248,0.0,0.0,74,0.00,,---,0.00,VWS V13.01,2013-03-24 11:03:00,
2013-03-24 07:04:00,28.5,21.3,29.93,WSW,248,0.0,0.0,74,0.00,,---,0.00,VWS V13.01,2013-03-24 11:04:00,
2013-03-24 07:05:00,28.5,21.3,29.93,WSW,248,0.0,0.0,74,0.00,,---,0.00,VWS V13.01,2013-03-24 11:05:00,
2013-03-24 07:06:00,28.4,21.5,29.93,WSW,248,0.0,0.0,75,0.00,,---,0.00,VWS V13.01,2013-03-24 11:06:00,
2013-03-24 07:07:00,28.4,21.2,29.94,WSW,248,0.0,0.0,74,0.00,,---,0.00,VWS V13.01,2013-03-24 11:07:00,
2013-03-24 07:08:00,28.4,21.2,29.93,WSW,248,0.0,0.0,74,0.00,,---,0.00,VWS V13.01,2013-03-24 11:08:00,
2013-03-24 07:09:00,28.4,21.5,29.93,WSW,248,0.0,0.0,75,0.00,,---,0.00,VWS V13.01,2013-03-24 11:09:00,
2013-03-24 07:10:00,28.4,21.5,29.94,WSW,248,0.0,0.0,75,0.00,,---,0.00,VWS V13.01,2013-03-24 11:10:00,
2013-03-24 07:11:00,28.3,21.4,29.94,WSW,248,0.0,0.0,75,0.00,,---,0.00,VWS V13.01,2013-03-24 11:11:00,
2013-03-24 07:12:00,28.3,21.4,29.93,WSW,248,0.0,0.0,75,0.00,,---,0.00,VWS V13.01,2013-03-24 11:12:00,
2013-03-24 07:13:00,28.3,21.4,29.93,WSW,248,0.0,0.0,75,0.00,,---,0.00,VWS V13.01,2013-03-24 11:13:00,
2013-03-24 07:14:00,28.3,21.4,29.93,WSW,248,0.0,0.0,75,0.00,,---,0.00,VWS V13.01,2013-03-24 11:14:00,
2013-03-24 07:15:00,28.3,21.4,29.93,WSW,248,0.0,0.0,75,0.00,,---,0.00,VWS V13.01,2013-03-24 11:15:00,
2013-03-24 07:16:00,28.3,21.4,29.93,WSW,248,0.0,0.0,75,0.00,,---,0.00,VWS V13.01,2013-03-24 11:16:00,
2013-03-24 07:17:00,28.3,21.4,29.93,WSW,248,0.0,0.0,75,0.00,,---,0.00,VWS V13.01,2013-03-24 11:17:00,
2013-03-24 07:18:00,28.3,21.4,29.93,WSW,248,0.0,0.0,75,0.00,,---,0.00,VWS V13.01,2013-03-24 11:18:00,
2013-03-24 07:19:00,28.3,21.4,29.93,WSW,248,0.0,0.0,75,0.00,,---,0.00,VWS V13.01,2013-03-24 11:19:00,
2013-03-24 07:20:00,28.3,21.4,29.93,WSW,248,0.0,0.0,75,0.00,,---,0.00,VWS V13.01,2013-03-24 11:20:00,
2013-03-24 07:21:00,28.3,21.7,29.93,WSW,248,0.0,0.0,76,0.00,,---,0.00,VWS V13.01,2013-03-24 11:21:00,
2013-03-24 07:22:00,28.4,21.8,29.93,WSW,248,0.0,0.0,76,0.00,,---,0.00,VWS V13.01,2013-03-24 11:22:00,
2013-03-24 07:23:00,28.4,21.8,29.93,SW,225,0.0,1.0,76,0.00,,---,0.00,VWS V13.01,2013-03-24 11:23:00,
2013-03-24 07:24:00,28.4,21.8,29.93,SW,225,0.0,1.0,76,0.00,,---,0.00,VWS V13.01,2013-03-24 11:24:00,
2013-03-24 07:25:00,28.4,21.8,29.93,SW,225,0.0,0.0,76,0.00,,---,0.00,VWS V13.01,2013-03-24 11:25:00,
2013-03-24 07:26:00,28.4,21.8,29.93,SW,225,0.0,0.0,76,0.00,,---,0.00,VWS V13.01,2013-03-24 11:26:00,
2013-03-24 07:27:00,28.5,21.9,29.93,SW,225,0.0,0.0,76,0.00,,---,0.00,VWS V13.01,2013-03-24 11:27:00,
2013-03-24 07:28:00,28.5,21.9,29.93,SW,225,0.0,0.0,76,0.00,,---,0.00,VWS V13.01,2013-03-24 11:28:00,
2013-03-24 07:29:00,28.6,22.0,29.93,SW,225,0.0,0.0,76,0.00,,---,0.00,VWS V13.01,2013-03-24 11:29:00,
2013-03-24 07:30:00,28.7,22.1,29.93,SW,225,0.0,0.0,76,0.00,,---,0.00,VWS V13.01,2013-03-24 11:30:00,
2013-03-24 07:31:00,28.7,22.1,29.93,SW,225,0.0,0.0,76,0.00,,---,0.00,VWS V13.01,2013-03-24 11:31:00,
2013-03-24 07:32:00,28.8,22.2,29.93,SW,225,0.0,0.0,76,0.00,,---,0.00,VWS V13.01,2013-03-24 11:32:00,
2013-03-24 07:33:00,28.9,22.3,29.93,SW,225,0.0,0.0,76,0.00,,---,0.00,VWS V13.01,2013-03-24 11:33:00,
2013-03-24 07:34:00,28.9,22.3,29.93,SW,225,0.0,0.0,76,0.00,,---,0.00,VWS V13.01,2013-03-24 11:34:00,
2013-03-24 07:35:00,29.0,22.4,29.93,SW,225,0.0,0.0,76,0.00,,---,0.00,VWS V13.01,2013-03-24 11:35:00,
2013-03-24 07:36:00,29.1,22.5,29.93,SW,225,0.0,0.0,76,0.00,,---,0.00,VWS V13.01,2013-03-24 11:36:00,
2013-03-24 07:37:00,29.2,22.6,29.93,SW,225,0.0,0.0,76,0.00,,---,0.00,VWS V13.01,2013-03-24 11:37:00,
2013-03-24 07:38:00,29.2,22.6,29.93,SW,225,0.0,0.0,76,0.00,,---,0.00,VWS V13.01,2013-03-24 11:38:00,
2013-03-24 07:39:00,29.3,22.7,29.93,SW,225,0.0,0.0,76,0.00,,---,0.00,VWS V13.01,2013-03-24 11:39:00,
2013-03-24 07:40:00,29.4,22.5,29.93,SW,225,0.0,0.0,75,0.00,,---,0.00,VWS V13.01,2013-03-24 11:40:00,
2013-03-24 07:41:00,29.5,22.6,29.93,SW,225,0.0,0.0,75,0.00,,---,0.00,VWS V13.01,2013-03-24 11:41:00,
2013-03-24 07:42:00,29.6,22.7,29.93,SW,225,0.0,0.0,75,0.00,,---,0.00,VWS V13.01,2013-03-24 11:42:00,
2013-03-24 07:43:00,29.7,22.8,29.93,SW,225,0.0,0.0,75,0.00,,---,0.00,VWS V13.01,2013-03-24 11:43:00,
2013-03-24 07:44:00,29.8,22.9,29.93,SW,225,0.0,0.0,75,0.00,,---,0.00,VWS V13.01,2013-03-24 11:44:00,
2013-03-24 07:45:00,29.9,23.0,29.93,SW,225,0.0,0.0,75,0.00,,---,0.00,VWS V13.01,2013-03-24 11:45:00,
2013-03-24 07:46:00,30.1,22.8,29.93,SW,225,0.0,0.0,74,0.00,,---,0.00,VWS V13.01,2013-03-24 11:46:00,
2013-03-24 07:47:00,30.2,22.9,29.93,SW,225,0.0,0.0,74,0.00,,---,0.00,VWS V13.01,2013-03-24 11:47:00,
2013-03-24 07:48:00,30.4,23.1,29.93,SW,225,0.0,0.0,74,0.00,,---,0.00,VWS V13.01,2013-03-24 11:48:00,
2013-03-24 07:49:00,30.5,23.2,29.93,SW,225,0.0,0.0,74,0.00,,---,0.00,VWS V13.01,2013-03-24 11:49:00,
2013-03-24 07:50:00,30.6,23.3,29.93,SW,225,0.0,0.0,74,0.00,,---,0.00,VWS V13.01,2013-03-24 11:50:00,
2013-03-24 07:51:00,30.8,23.5,29.93,SW,225,0.0,0.0,74,0.00,,---,0.00,VWS V13.01,2013-03-24 11:51:00,
2013-03-24 07:52:00,30.9,23.3,29.93,SW,225,0.0,0.0,73,0.00,,---,0.00,VWS V13.01,2013-03-24 11:52:00,
2013-03-24 07:53:00,31.0,23.4,29.93,SW,225,0.0,1.0,73,0.00,,---,0.00,VWS V13.01,2013-03-24 11:53:00,
2013-03-24 07:54:00,31.2,23.6,29.93,SW,225,0.0,1.0,73,0.00,,---,0.00,VWS V13.01,2013-03-24 11:54:00,
2013-03-24 07:55:00,31.3,23.3,29.93,SW,225,0.0,1.0,72,0.00,,---,0.00,VWS V13.01,2013-03-24 11:55:00,
2013-03-24 07:56:00,31.4,23.4,29.93,SW,225,0.0,0.0,72,0.00,,---,0.00,VWS V13.01,2013-03-24 11:56:00,
2013-03-24 07:57:00,31.5,23.5,29.93,SW,225,0.0,0.0,72,0.00,,---,0.00,VWS V13.01,2013-03-24 11:57:00,
2013-03-24 07:58:00,31.7,23.4,29.93,SW,225,0.0,0.0,71,0.00,,---,0.00,VWS V13.01,2013-03-24 11:58:00,
2013-03-24 07:59:00,31.8,23.5,29.93,SW,225,0.0,0.0,71,0.00,,---,0.00,VWS V13.01,2013-03-24 11:59:00,
2013-03-24 08:00:00,32.0,23.7,29.93,SW,225,0.0,1.0,71,0.00,,---,0.00,VWS V13.01,2013-03-24 12:00:00,
2013-03-24 08:01:00,32.1,23.8,29.93,SSW,202,0.0,1.0,71,0.00,,---,0.00,VWS V13.01,2013-03-24 12:01:00,
2013-03-24 08:02:00,32.3,23.6,29.93,SSW,202,0.0,4.0,70,0.00,,---,0.00,VWS V13.01,2013-03-24 12:02:00,
2013-03-24 08:03:00,32.4,23.7,29.93,WSW,248,1.0,5.0,70,0.00,,---,0.00,VWS V13.01,2013-03-24 12:03:00,
2013-03-24 08:04:00,32.6,23.9,29.93,WSW,248,0.0,0.0,70,0.00,,---,0.00,VWS V13.01,2013-03-24 12:04:00,
2013-03-24 08:05:00,32.7,23.7,29.93,WSW,248,1.0,3.0,69,0.00,,---,0.00,VWS V13.01,2013-03-24 12:05:00,
2013-03-24 08:06:00,32.9,23.9,29.93,WSW,248,0.0,0.0,69,0.00,,---,0.00,VWS V13.01,2013-03-24 12:06:00,
2013-03-24 08:07:00,33.0,24.0,29.93,SSW,202,0.0,1.0,69,0.00,,---,0.00,VWS V13.01,2013-03-24 12:07:00,
2013-03-24 08:08:00,33.2,23.8,29.93,SW,225,1.0,2.0,68,0.00,,---,0.00,VWS V13.01,2013-03-24 12:08:00,
2013-03-24 08:09:00,33.3,23.9,29.93,West,270,2.0,3.0,68,0.00,,---,0.00,VWS V13.01,2013-03-24 12:09:00,
2013-03-24 08:10:00,33.4,24.0,29.93,West,270,1.0,2.0,68,0.00,,---,0.00,VWS V13.01,2013-03-24 12:10:00,
2013-03-24 08:11:00,33.5,24.1,29.93,West,270,1.0,2.0,68,0.00,,---,0.00,VWS V13.01,2013-03-24 12:11:00,
2013-03-24 08:12:00,33.7,24.3,29.93,WSW,248,0.0,1.0,68,0.00,,---,0.00,VWS V13.01,2013-03-24 12:12:00,
2013-03-24 08:13:00,33.7,23.9,29.94,SW,225,0.0,2.0,67,0.00,,---,0.00,VWS V13.01,2013-03-24 12:13:00,
2013-03-24 08:14:00,33.8,23.7,29.93,SW,225,1.0,2.0,66,0.00,,---,0.00,VWS V13.01,2013-03-24 12:14:00,
2013-03-24 08:15:00,33.9,23.8,29.94,WSW,248,0.0,1.0,66,0.00,,---,0.00,VWS V13.01,2013-03-24 12:15:00,
2013-03-24 08:16:00,34.1,24.3,29.94,West,270,0.0,1.0,67,0.00,,---,0.00,VWS V13.01,2013-03-24 12:16:00,
2013-03-24 08:17:00,34.2,24.0,29.93,West,270,0.0,1.0,66,0.00,,---,0.00,VWS V13.01,2013-03-24 12:17:00,
2013-03-24 08:18:00,34.3,24.1,29.93,West,270,1.0,2.0,66,0.00,,---,0.00,VWS V13.01,2013-03-24 12:18:00,
2013-03-24 08:19:00,34.4,24.2,29.93,West,270,0.0,0.0,66,0.00,,---,0.00,VWS V13.01,2013-03-24 12:19:00,
2013-03-24 08:20:00,34.5,24.0,29.93,West,270,1.0,2.0,65,0.00,,---,0.00,VWS V13.01,2013-03-24 12:20:00,
2013-03-24 08:21:00,34.6,24.1,29.93,West,270,1.0,3.0,65,0.00,,---,0.00,VWS V13.01,2013-03-24 12:21:00,
2013-03-24 08:22:00,34.7,24.1,29.94,WSW,248,1.0,3.0,65,0.00,,---,0.00,VWS V13.01,2013-03-24 12:22:00,
2013-03-24 08:23:00,34.8,24.2,29.94,SW,225,0.0,2.0,65,0.00,,---,0.00,VWS V13.01,2013-03-24 12:23:00,
2013-03-24 08:24:00,34.8,24.2,29.94,SW,225,0.0,0.0,65,0.00,,---,0.00,VWS V13.01,2013-03-24 12:24:00,
2013-03-24 08:25:00,35.0,24.4,29.94,West,270,0.0,1.0,65,0.00,,---,0.00,VWS V13.01,2013-03-24 12:25:00,
2013-03-24 08:26:00,35.1,24.5,29.93,SW,225,1.0,3.0,65,0.00,,---,0.00,VWS V13.01,2013-03-24 12:26:00,
2013-03-24 08:27:00,35.2,24.3,29.94,WSW,248,1.0,5.0,64,0.00,,---,0.00,VWS V13.01,2013-03-24 12:27:00,
2013-03-24 08:28:00,35.2,23.9,29.94,WSW,248,0.0,1.0,63,0.00,,---,0.00,VWS V13.01,2013-03-24 12:28:00,
2013-03-24 08:29:00,35.3,24.0,29.94,WSW,248,0.0,0.0,63,0.00,,---,0.00,VWS V13.01,2013-03-24 12:29:00,
2013-03-24 08:30:00,35.4,24.1,29.93,WSW,248,1.0,2.0,63,0.00,,---,0.00,VWS V13.01,2013-03-24 12:30:00,
2013-03-24 08:31:00,35.5,24.2,29.93,WSW,248,1.0,2.0,63,0.00,,---,0.00,VWS V13.01,2013-03-24 12:31:00,
2013-03-24 08:32:00,35.6,24.3,29.93,West,270,1.0,1.0,63,0.00,,---,0.00,VWS V13.01,2013-03-24 12:32:00,
2013-03-24 08:33:00,35.7,24.0,29.93,WSW,248,1.0,2.0,62,0.00,,---,0.00,VWS V13.01,2013-03-24 12:33:00,
2013-03-24 08:34:00,35.8,24.1,29.93,WSW,248,1.0,4.0,62,0.00,,---,0.00,VWS V13.01,2013-03-24 12:34:00,
2013-03-24 08:35:00,35.9,24.2,29.93,SSW,202,1.0,3.0,62,0.00,,---,0.00,VWS V13.01,2013-03-24 12:35:00,
2013-03-24 08:36:00,36.0,24.3,29.92,SSW,202,0.0,0.0,62,0.00,,---,0.00,VWS V13.01,2013-03-24 12:36:00,
2013-03-24 08:37:00,36.0,23.9,29.92,SW,225,0.0,1.0,61,0.00,,---,0.00,VWS V13.01,2013-03-24 12:37:00,
2013-03-24 08:38:00,36.1,24.0,29.92,SW,225,0.0,2.0,61,0.00,,---,0.00,VWS V13.01,2013-03-24 12:38:00,
2013-03-24 08:39:00,36.2,24.1,29.92,West,270,1.0,2.0,61,0.00,,---,0.00,VWS V13.01,2013-03-24 12:39:00,
2013-03-24 08:40:00,36.3,24.1,29.92,West,270,0.0,0.0,61,0.00,,---,0.00,VWS V13.01,2013-03-24 12:40:00,
2013-03-24 08:41:00,36.4,23.9,29.92,WSW,248,0.0,1.0,60,0.00,,---,0.00,VWS V13.01,2013-03-24 12:41:00,
2013-03-24 08:42:00,36.5,24.0,29.92,West,270,1.0,2.0,60,0.00,,---,0.00,VWS V13.01,2013-03-24 12:42:00,
2013-03-24 08:43:00,36.6,24.0,29.92,West,270,2.0,4.0,60,0.00,,---,0.00,VWS V13.01,2013-03-24 12:43:00,
2013-03-24 08:44:00,36.7,24.1,29.92,West,270,3.0,4.0,60,0.00,,---,0.00,VWS V13.01,2013-03-24 12:44:00,
2013-03-24 08:45:00,36.8,23.8,29.92,West,270,2.0,4.0,59,0.00,,---,0.00,VWS V13.01,2013-03-24 12:45:00,
2013-03-24 08:46:00,36.8,24.2,29.92,WSW,248,2.0,3.0,60,0.00,,---,0.00,VWS V13.01,2013-03-24 12:46:00,
2013-03-24 08:47:00,36.9,23.9,29.92,WSW,248,2.0,4.0,59,0.00,,---,0.00,VWS V13.01,2013-03-24 12:47:00,
2013-03-24 08:48:00,37.0,23.6,29.92,WSW,248,0.0,1.0,58,0.00,,---,0.00,VWS V13.01,2013-03-24 12:48:00,
2013-03-24 08:49:00,37.0,24.0,29.92,WNW,292,1.0,3.0,59,0.00,,---,0.00,VWS V13.01,2013-03-24 12:49:00,
2013-03-24 08:50:00,37.1,24.1,29.93,WNW,292,2.0,4.0,59,0.00,,---,0.00,VWS V13.01,2013-03-24 12:50:00,
2013-03-24 08:51:00,37.1,24.1,29.93,West,270,1.0,3.0,59,0.00,,---,0.00,VWS V13.01,2013-03-24 12:51:00,
2013-03-24 08:52:00,37.2,23.8,29.93,WNW,292,0.0,1.0,58,0.00,,---,0.00,VWS V13.01,2013-03-24 12:52:00,
2013-03-24 08:53:00,37.2,23.8,29.93,West,270,2.0,3.0,58,0.00,,---,0.00,VWS V13.01,2013-03-24 12:53:00,
2013-03-24 08:54:00,37.3,23.9,29.93,West,270,1.0,4.0,58,0.00,,---,0.00,VWS V13.01,2013-03-24 12:54:00,
2013-03-24 08:55:00,37.3,23.9,29.93,West,270,3.0,5.0,58,0.00,,---,0.00,VWS V13.01,2013-03-24 12:55:00,
2013-03-24 08:56:00,37.3,23.9,29.93,WNW,292,3.0,5.0,58,0.00,,---,0.00,VWS V13.01,2013-03-24 12:56:00,
2013-03-24 08:57:00,37.4,24.0,29.93,West,270,3.0,4.0,58,0.00,,---,0.00,VWS V13.01,2013-03-24 12:57:00,
2013-03-24 08:58:00,37.4,24.0,29.93,West,270,1.0,2.0,58,0.00,,---,0.00,VWS V13.01,2013-03-24 12:58:00,
2013-03-24 08:59:00,37.5,23.7,29.93,West,270,3.0,4.0,57,0.00,,---,0.00,VWS V13.01,2013-03-24 12:59:00,
2013-03-24 09:00:00,37.5,24.1,29.93,West,270,4.0,6.0,58,0.00,,---,0.00,VWS V13.01,2013-03-24 13:00:00,
2013-03-24 09:01:00,37.6,23.8,29.93,WSW,248,1.0,2.0,57,0.00,,---,0.00,VWS V13.01,2013-03-24 13:01:00,
2013-03-24 09:02:00,37.7,23.9,29.93,West,270,4.0,9.0,57,0.00,,---,0.00,VWS V13.01,2013-03-24 13:02:00,
2013-03-24 09:03:00,37.7,23.9,29.93,WSW,248,2.0,3.0,57,0.00,,---,0.00,VWS V13.01,2013-03-24 13:03:00,
2013-03-24 09:04:00,37.8,24.0,29.93,West,270,2.0,5.0,57,0.00,,---,0.00,VWS V13.01,2013-03-24 13:04:00,
2013-03-24 09:05:00,37.9,24.0,29.94,West,270,0.0,1.0,57,0.00,,---,0.00,VWS V13.01,2013-03-24 13:05:00,
2013-03-24 09:06:00,38.0,24.1,29.94,WSW,248,0.0,1.0,57,0.00,,---,0.00,VWS V13.01,2013-03-24 13:06:00,
2013-03-24 09:07:00,38.1,24.2,29.94,West,270,1.0,3.0,57,0.00,,---,0.00,VWS V13.01,2013-03-24 13:07:00,
2013-03-24 09:08:00,38.2,24.3,29.94,West,270,3.0,9.0,57,0.00,,---,0.00,VWS V13.01,2013-03-24 13:08:00,
2013-03-24 09:09:00,38.3,24.0,29.93,West,270,1.0,3.0,56,0.00,,---,0.00,VWS V13.01,2013-03-24 13:09:00,
2013-03-24 09:10:00,38.4,24.1,29.93,West,270,2.0,4.0,56,0.00,,---,0.00,VWS V13.01,2013-03-24 13:10:00,
2013-03-24 09:11:00,38.5,24.2,29.93,West,270,1.0,2.0,56,0.00,,---,0.00,VWS V13.01,2013-03-24 13:11:00,
2013-03-24 09:12:00,38.6,23.8,29.93,West,270,1.0,1.0,55,0.00,,---,0.00,VWS V13.01,2013-03-24 13:12:00,
2013-03-24 09:13:00,38.7,23.9,29.93,WNW,292,2.0,4.0,55,0.00,,---,0.00,VWS V13.01,2013-03-24 13:13:00,
2013-03-24 09:14:00,38.8,24.0,29.93,WSW,248,2.0,4.0,55,0.00,,---,0.00,VWS V13.01,2013-03-24 13:14:00,
2013-03-24 09:15:00,38.9,24.1,29.93,WSW,248,4.0,11.0,55,0.00,,---,0.00,VWS V13.01,2013-03-24 13:15:00,
2013-03-24 09:16:00,39.0,23.8,29.93,West,270,2.0,3.0,54,0.00,,---,0.00,VWS V13.01,2013-03-24 13:16:00,
2013-03-24 09:17:00,39.1,23.9,29.93,WNW,292,2.0,3.0,54,0.00,,---,0.00,VWS V13.01,2013-03-24 13:17:00,
2013-03-24 09:18:00,39.2,23.5,29.93,West,270,4.0,10.0,53,0.00,,---,0.00,VWS V13.01,2013-03-24 13:18:00,
2013-03-24 09:19:00,39.3,23.6,29.93,West,270,2.0,4.0,53,0.00,,---,0.00,VWS V13.01,2013-03-24 13:19:00,
2013-03-24 09:20:00,39.3,24.1,29.93,WNW,292,1.0,3.0,54,0.00,,---,0.00,VWS V13.01,2013-03-24 13:20:00,
2013-03-24 09:21:00,39.3,23.6,29.93,WSW,248,3.0,6.0,53,0.00,,---,0.00,VWS V13.01,2013-03-24 13:21:00,
2013-03-24 09:22:00,39.3,23.6,29.93,West,270,3.0,5.0,53,0.00,,---,0.00,VWS V13.01,2013-03-24 13:22:00,
2013-03-24 09:23:00,39.4,23.7,29.93,WNW,292,3.0,4.0,53,0.00,,---,0.00,VWS V13.01,2013-03-24 13:23:00,
2013-03-24 09:26:00,39.5,23.4,29.92,WSW,248,3.0,6.0,52,0.00,,---,0.00,VWS V13.01,2013-03-24 13:26:00,
2013-03-24 09:28:00,39.5,23.8,29.92,WSW,248,5.0,10.0,53,0.00,,---,0.00,VWS V13.01,2013-03-24 13:28:00,
2013-03-24 09:29:00,39.5,23.8,29.92,West,270,4.0,6.0,53,0.00,,---,0.00,VWS V13.01,2013-03-24 13:29:00,
2013-03-24 09:30:00,39.5,22.9,29.92,West,270,2.0,4.0,51,0.00,,---,0.00,VWS V13.01,2013-03-24 13:30:00,
2013-03-24 09:31:00,39.5,22.9,29.92,West,270,3.0,5.0,51,0.00,,---,0.00,VWS V13.01,2013-03-24 13:31:00,
2013-03-24 09:32:00,39.5,23.4,29.92,WSW,248,2.0,4.0,52,0.00,,---,0.00,VWS V13.01,2013-03-24 13:32:00,
2013-03-24 09:33:00,39.5,22.9,29.92,WSW,248,3.0,11.0,51,0.00,,---,0.00,VWS V13.01,2013-03-24 13:33:00,
2013-03-24 09:34:00,39.5,22.9,29.92,West,270,4.0,5.0,51,0.00,,---,0.00,VWS V13.01,2013-03-24 13:34:00,
2013-03-24 09:35:00,39.5,22.4,29.92,WSW,248,2.0,4.0,50,0.00,,---,0.00,VWS V13.01,2013-03-24 13:35:00,
2013-03-24 09:36:00,39.5,23.4,29.92,ENE,68,0.0,1.0,52,0.00,,---,0.00,VWS V13.01,2013-03-24 13:36:00,
2013-03-24 09:37:00,39.5,23.4,29.92,WSW,248,3.0,4.0,52,0.00,,---,0.00,VWS V13.01,2013-03-24 13:37:00,
2013-03-24 09:38:00,39.6,23.0,29.92,West,270,2.0,4.0,51,0.00,,---,0.00,VWS V13.01,2013-03-24 13:38:00,
2013-03-24 09:39:00,39.6,23.0,29.92,SW,225,2.0,3.0,51,0.00,,---,0.00,VWS V13.01,2013-03-24 13:39:00,
2013-03-24 09:40:00,39.7,23.1,29.92,WNW,292,1.0,4.0,51,0.00,,---,0.00,VWS V13.01,2013-03-24 13:40:00,
2013-03-24 09:41:00,39.7,23.5,29.92,West,270,5.0,8.0,52,0.00,,---,0.00,VWS V13.01,2013-03-24 13:41:00,
2013-03-24 09:42:00,39.8,23.2,29.92,West,270,3.0,6.0,51,0.00,,---,0.00,VWS V13.01,2013-03-24 13:42:00,
2013-03-24 09:43:00,39.8,22.7,29.91,WNW,292,2.0,5.0,50,0.00,,---,0.00,VWS V13.01,2013-03-24 13:43:00,
2013-03-24 09:44:00,39.8,23.2,29.91,West,270,1.0,5.0,51,0.00,,---,0.00,VWS V13.01,2013-03-24 13:44:00,
2013-03-24 09:45:00,39.8,23.2,29.91,West,270,4.0,6.0,51,0.00,,---,0.00,VWS V13.01,2013-03-24 13:45:00,
2013-03-24 09:47:00,40.0,23.8,29.91,West,270,3.0,6.0,52,0.00,,---,0.00,VWS V13.01,2013-03-24 13:47:00,
2013-03-24 09:48:00,40.0,23.4,29.91,WNW,292,3.0,4.0,51,0.00,,---,0.00,VWS V13.01,2013-03-24 13:48:00,
2013-03-24 09:49:00,40.1,23.4,29.91,West,270,3.0,6.0,51,0.00,,---,0.00,VWS V13.01,2013-03-24 13:49:00,
2013-03-24 09:50:00,40.2,23.5,29.90,West,270,1.0,2.0,51,0.00,,---,0.00,VWS V13.01,2013-03-24 13:50:00,
2013-03-24 09:51:00,40.2,23.1,29.90,WSW,248,1.0,2.0,50,0.00,,---,0.00,VWS V13.01,2013-03-24 13:51:00,
2013-03-24 09:52:00,40.3,22.7,29.91,WNW,292,5.0,9.0,49,0.00,,---,0.00,VWS V13.01,2013-03-24 13:52:00,
2013-03-24 09:53:00,40.3,23.1,29.91,West,270,3.0,6.0,50,0.00,,---,0.00,VWS V13.01,2013-03-24 13:53:00,
2013-03-24 09:54:00,40.4,23.2,29.90,WNW,292,4.0,9.0,50,0.00,,---,0.00,VWS V13.01,2013-03-24 13:54:00,
2013-03-24 09:55:00,40.4,22.8,29.91,West,270,2.0,4.0,49,0.00,,---,0.00,VWS V13.01,2013-03-24 13:55:00,
2013-03-24 09:56:00,40.5,22.9,29.91,WSW,248,1.0,3.0,49,0.00,,---,0.00,VWS V13.01,2013-03-24 13:56:00,
2013-03-24 09:57:00,40.5,22.9,29.91,West,270,2.0,3.0,49,0.00,,---,0.00,VWS V13.01,2013-03-24 13:57:00,
2013-03-24 09:58:00,40.5,22.9,29.91,WNW,292,2.0,4.0,49,0.00,,---,0.00,VWS V13.01,2013-03-24 13:58:00,
2013-03-24 09:59:00,40.5,22.9,29.91,West,270,3.0,6.0,49,0.00,,---,0.00,VWS V13.01,2013-03-24 13:59:00,
2013-03-24 10:00:00,40.5,22.9,29.91,West,270,5.0,9.0,49,0.00,,---,0.00,VWS V13.01,2013-03-24 14:00:00,
2013-03-24 10:01:00,40.5,22.4,29.91,West,270,2.0,5.0,48,0.00,,---,0.00,VWS V13.01,2013-03-24 14:01:00,
2013-03-24 10:02:00,40.4,22.8,29.90,WNW,292,4.0,6.0,49,0.00,,---,0.00,VWS V13.01,2013-03-24 14:02:00,
2013-03-24 10:03:00,40.4,22.8,29.90,WNW,292,3.0,11.0,49,0.00,,---,0.00,VWS V13.01,2013-03-24 14:03:00,
2013-03-24 10:04:00,40.4,22.8,29.90,WNW,292,3.0,6.0,49,0.00,,---,0.00,VWS V13.01,2013-03-24 14:04:00,
2013-03-24 10:05:00,40.3,22.7,29.90,WNW,292,4.0,7.0,49,0.00,,---,0.00,VWS V13.01,2013-03-24 14:05:00,
2013-03-24 10:06:00,40.4,22.8,29.90,WNW,292,3.0,4.0,49,0.00,,---,0.00,VWS V13.01,2013-03-24 14:06:00,
2013-03-24 10:07:00,40.4,22.8,29.90,West,270,2.0,6.0,49,0.00,,---,0.00,VWS V13.01,2013-03-24 14:07:00,
2013-03-24 10:08:00,40.4,22.8,29.90,WNW,292,5.0,7.0,49,0.00,,---,0.00,VWS V13.01,2013-03-24 14:08:00,
2013-03-24 10:09:00,40.5,22.9,29.90,WSW,248,4.0,7.0,49,0.00,,---,0.00,VWS V13.01,2013-03-24 14:09:00,
2013-03-24 10:10:00,40.5,22.9,29.90,West,270,3.0,5.0,49,0.00,,---,0.00,VWS V13.01,2013-03-24 14:10:00,
2013-03-24 10:11:00,40.6,23.0,29.89,West,270,3.0,4.0,49,0.00,,---,0.00,VWS V13.01,2013-03-24 14:11:00,
2013-03-24 10:12:00,40.6,22.5,29.90,West,270,4.0,10.0,48,0.00,,---,0.00,VWS V13.01,2013-03-24 14:12:00,
2013-03-24 10:13:00,40.7,23.0,29.90,WNW,292,5.0,9.0,49,0.00,,---,0.00,VWS V13.01,2013-03-24 14:13:00,
2013-03-24 10:14:00,40.7,22.5,29.90,WNW,292,3.0,5.0,48,0.00,,---,0.00,VWS V13.01,2013-03-24 14:14:00,
2013-03-24 10:15:00,40.8,22.6,29.90,West,270,3.0,5.0,48,0.00,,---,0.00,VWS V13.01,2013-03-24 14:15:00,
2013-03-24 10:16:00,40.8,22.1,29.90,West,270,3.0,6.0,47,0.00,,---,0.00,VWS V13.01,2013-03-24 14:16:00,
2013-03-24 10:17:00,40.8,22.1,29.90,WNW,292,3.0,6.0,47,0.00,,---,0.00,VWS V13.01,2013-03-24 14:17:00,
2013-03-24 10:18:00,40.8,22.6,29.90,West,270,3.0,5.0,48,0.00,,---,0.00,VWS V13.01,2013-03-24 14:18:00,
2013-03-24 10:19:00,40.8,22.6,29.90,WNW,292,3.0,5.0,48,0.00,,---,0.00,VWS V13.01,2013-03-24 14:19:00,
2013-03-24 10:20:00,40.8,23.1,29.90,WSW,248,2.0,4.0,49,0.00,,---,0.00,VWS V13.01,2013-03-24 14:20:00,
2013-03-24 10:21:00,40.8,22.6,29.90,West,270,4.0,5.0,48,0.00,,---,0.00,VWS V13.01,2013-03-24 14:21:00,
2013-03-24 10:22:00,40.8,22.6,29.90,West,270,3.0,5.0,48,0.00,,---,0.00,VWS V13.01,2013-03-24 14:22:00,
2013-03-24 10:23:00,40.8,22.6,29.90,WNW,292,3.0,5.0,48,0.00,,---,0.00,VWS V13.01,2013-03-24 14:23:00,
2013-03-24 10:24:00,40.9,23.2,29.89,West,270,1.0,3.0,49,0.00,,---,0.00,VWS V13.01,2013-03-24 14:24:00,
2013-03-24 10:25:00,40.9,23.2,29.89,WNW,292,4.0,7.0,49,0.00,,---,0.00,VWS V13.01,2013-03-24 14:25:00,
2013-03-24 10:26:00,41.0,22.8,29.89,WSW,248,2.0,4.0,48,0.00,,---,0.00,VWS V13.01,2013-03-24 14:26:00,
2013-03-24 10:27:00,41.0,22.8,29.89,WNW,292,4.0,11.0,48,0.00,,---,0.00,VWS V13.01,2013-03-24 14:27:00,
2013-03-24 10:28:00,41.1,22.9,29.89,West,270,4.0,7.0,48,0.00,,---,0.00,VWS V13.01,2013-03-24 14:28:00,
2013-03-24 10:29:00,41.1,22.4,29.88,West,270,5.0,9.0,47,0.00,,---,0.00,VWS V13.01,2013-03-24 14:29:00,
2013-03-24 10:30:00,41.1,22.9,29.88,West,270,1.0,3.0,48,0.00,,---,0.00,VWS V13.01,2013-03-24 14:30:00,
2013-03-24 10:31:00,41.3,22.6,29.88,West,270,2.0,4.0,47,0.00,,---,0.00,VWS V13.01,2013-03-24 14:31:00,
2013-03-24 10:32:00,41.3,23.1,29.88,West,270,0.0,2.0,48,0.00,,---,0.00,VWS V13.01,2013-03-24 14:32:00,
2013-03-24 10:33:00,41.4,22.7,29.88,West,270,2.0,3.0,47,0.00,,---,0.00,VWS V13.01,2013-03-24 14:33:00,
2013-03-24 10:34:00,41.5,22.8,29.88,West,270,2.0,6.0,47,0.00,,---,0.00,VWS V13.01,2013-03-24 14:34:00,
2013-03-24 10:35:00,41.5,22.3,29.88,WNW,292,4.0,10.0,46,0.00,,---,0.00,VWS V13.01,2013-03-24 14:35:00,
2013-03-24 10:36:00,41.5,22.3,29.87,WNW,292,4.0,9.0,46,0.00,,---,0.00,VWS V13.01,2013-03-24 14:36:00,
2013-03-24 10:37:00,41.5,22.8,29.87,West,270,2.0,3.0,47,0.00,,---,0.00,VWS V13.01,2013-03-24 14:37:00,
2013-03-24 10:38:00,41.6,22.9,29.87,West,270,3.0,7.0,47,0.00,,---,0.00,VWS V13.01,2013-03-24 14:38:00,
2013-03-24 10:39:00,41.6,22.9,29.88,WNW,292,3.0,5.0,47,0.00,,---,0.00,VWS V13.01,2013-03-24 14:39:00,
2013-03-24 10:40:00,41.6,22.9,29.88,WNW,292,5.0,11.0,47,0.00,,---,0.00,VWS V13.01,2013-03-24 14:40:00,
2013-03-24 10:41:00,41.6,22.9,29.87,WNW,292,3.0,5.0,47,0.00,,---,0.00,VWS V13.01,2013-03-24 14:41:00,
2013-03-24 10:42:00,41.5,22.8,29.87,WNW,292,2.0,7.0,47,0.00,,---,0.00,VWS V13.01,2013-03-24 14:42:00,
2013-03-24 10:43:00,41.5,22.8,29.87,West,270,1.0,3.0,47,0.00,,---,0.00,VWS V13.01,2013-03-24 14:43:00,
2013-03-24 10:44:00,41.5,22.8,29.87,WSW,248,1.0,3.0,47,0.00,,---,0.00,VWS V13.01,2013-03-24 14:44:00,
2013-03-24 10:45:00,41.5,22.8,29.87,West,270,2.0,3.0,47,0.00,,---,0.00,VWS V13.01,2013-03-24 14:45:00,
2013-03-24 10:46:00,41.5,22.8,29.87,West,270,1.0,3.0,47,0.00,,---,0.00,VWS V13.01,2013-03-24 14:46:00,
2013-03-24 10:47:00,41.5,23.3,29.87,West,270,1.0,2.0,48,0.00,,---,0.00,VWS V13.01,2013-03-24 14:47:00,
2013-03-24 10:48:00,41.5,23.8,29.87,SSW,202,5.0,6.0,49,0.00,,---,0.00,VWS V13.01,2013-03-24 14:48:00,
2013-03-24 10:49:00,41.6,23.9,29.87,WNW,292,4.0,6.0,49,0.00,,---,0.00,VWS V13.01,2013-03-24 14:49:00,
2013-03-24 10:50:00,41.7,23.5,29.87,West,270,1.0,4.0,48,0.00,,---,0.00,VWS V13.01,2013-03-24 14:50:00,
2013-03-24 10:51:00,41.8,23.1,29.87,West,270,4.0,8.0,47,0.00,,---,0.00,VWS V13.01,2013-03-24 14:51:00,
2013-03-24 10:52:00,41.8,23.6,29.87,WSW,248,3.0,5.0,48,0.00,,---,0.00,VWS V13.01,2013-03-24 14:52:00,
2013-03-24 10:53:00,41.9,23.2,29.87,West,270,5.0,11.0,47,0.00,,---,0.00,VWS V13.01,2013-03-24 14:53:00,
2013-03-24 10:54:00,42.0,22.7,29.87,West,270,5.0,7.0,46,0.00,,---,0.00,VWS V13.01,2013-03-24 14:54:00,
2013-03-24 10:55:00,42.0,22.7,29.87,WNW,292,4.0,7.0,46,0.00,,---,0.00,VWS V13.01,2013-03-24 14:55:00,
2013-03-24 10:56:00,42.0,22.7,29.87,West,270,4.0,6.0,46,0.00,,---,0.00,VWS V13.01,2013-03-24 14:56:00,
2013-03-24 10:57:00,42.0,22.7,29.87,WNW,292,4.0,10.0,46,0.00,,---,0.00,VWS V13.01,2013-03-24 14:57:00,
2013-03-24 10:58:00,42.0,22.7,29.88,NE,45,1.0,2.0,46,0.00,,---,0.00,VWS V13.01,2013-03-24 14:58:00,
2013-03-24 10:59:00,42.0,22.7,29.87,West,270,3.0,6.0,46,0.00,,---,0.00,VWS V13.01,2013-03-24 14:59:00,
2013-03-24 11:00:00,42.1,23.3,29.87,West,270,4.0,4.0,47,0.00,,---,0.00,VWS V13.01,2013-03-24 15:00:00,
2013-03-24 11:01:00,42.1,22.8,29.87,West,270,3.0,8.0,46,0.00,,---,0.00,VWS V13.01,2013-03-24 15:01:00,
2013-03-24 11:02:00,42.2,22.9,29.87,WNW,292,2.0,3.0,46,0.00,,---,0.00,VWS V13.01,2013-03-24 15:02:00,
2013-03-24 11:03:00,42.2,22.9,29.87,WNW,292,1.0,2.0,46,0.00,,---,0.00,VWS V13.01,2013-03-24 15:03:00,
2013-03-24 11:04:00,42.2,22.9,29.87,West,270,2.0,4.0,46,0.00,,---,0.00,VWS V13.01,2013-03-24 15:04:00,
2013-03-24 11:05:00,42.3,23.0,29.87,WNW,292,2.0,5.0,46,0.00,,---,0.00,VWS V13.01,2013-03-24 15:05:00,
2013-03-24 11:06:00,42.3,23.5,29.87,West,270,3.0,6.0,47,0.00,,---,0.00,VWS V13.01,2013-03-24 15:06:00,
2013-03-24 11:07:00,42.5,24.2,29.87,WNW,292,4.0,5.0,48,0.00,,---,0.00,VWS V13.01,2013-03-24 15:07:00,
2013-03-24 11:08:00,42.5,23.2,29.87,WSW,248,2.0,5.0,46,0.00,,---,0.00,VWS V13.01,2013-03-24 15:08:00,
2013-03-24 11:09:00,42.6,23.8,29.87,WSW,248,4.0,7.0,47,0.00,,---,0.00,VWS V13.01,2013-03-24 15:09:00,
2013-03-24 11:10:00,42.7,23.9,29.87,WSW,248,3.0,5.0,47,0.00,,---,0.00,VWS V13.01,2013-03-24 15:10:00,
2013-03-24 11:11:00,42.7,23.4,29.86,West,270,1.0,3.0,46,0.00,,---,0.00,VWS V13.01,2013-03-24 15:11:00,
2013-03-24 11:12:00,42.7,22.9,29.86,NW,315,0.0,1.0,45,0.00,,---,0.00,VWS V13.01,2013-03-24 15:12:00,
2013-03-24 11:13:00,42.7,23.4,29.86,NE,45,0.0,1.0,46,0.00,,---,0.00,VWS V13.01,2013-03-24 15:13:00,
2013-03-24 11:14:00,42.7,23.9,29.86,ENE,68,2.0,4.0,47,0.00,,---,0.00,VWS V13.01,2013-03-24 15:14:00,
2013-03-24 11:15:00,42.8,24.0,29.86,West,270,1.0,4.0,47,0.00,,---,0.00,VWS V13.01,2013-03-24 15:15:00,
2013-03-24 11:16:00,42.8,24.0,29.86,WSW,248,2.0,4.0,47,0.00,,---,0.00,VWS V13.01,2013-03-24 15:16:00,
2013-03-24 11:17:00,43.0,24.2,29.86,West,270,2.0,4.0,47,0.00,,---,0.00,VWS V13.01,2013-03-24 15:17:00,
2013-03-24 11:18:00,43.1,24.3,29.86,West,270,2.0,4.0,47,0.00,,---,0.00,VWS V13.01,2013-03-24 15:18:00,
2013-03-24 11:19:00,43.2,24.4,29.86,WNW,292,0.0,1.0,47,0.00,,---,0.00,VWS V13.01,2013-03-24 15:19:00,
2013-03-24 11:20:00,43.3,23.9,29.86,West,270,4.0,5.0,46,0.00,,---,0.00,VWS V13.01,2013-03-24 15:20:00,
2013-03-24 11:21:00,43.3,23.4,29.86,West,270,2.0,3.0,45,0.00,,---,0.00,VWS V13.01,2013-03-24 15:21:00,
2013-03-24 11:22:00,43.4,23.5,29.86,WNW,292,3.0,6.0,45,0.00,,---,0.00,VWS V13.01,2013-03-24 15:22:00,
2013-03-24 11:23:00,43.4,23.5,29.85,West,270,3.0,5.0,45,0.00,,---,0.00,VWS V13.01,2013-03-24 15:23:00,
2013-03-24 11:24:00,43.4,23.5,29.85,West,270,2.0,3.0,45,0.00,,---,0.00,VWS V13.01,2013-03-24 15:24:00,
2013-03-24 11:25:00,43.4,23.5,29.85,WNW,292,3.0,4.0,45,0.00,,---,0.00,VWS V13.01,2013-03-24 15:25:00,
2013-03-24 11:26:00,43.4,23.5,29.85,West,270,2.0,3.0,45,0.00,,---,0.00,VWS V13.01,2013-03-24 15:26:00,
2013-03-24 11:27:00,43.4,23.0,29.85,West,270,2.0,4.0,44,0.00,,---,0.00,VWS V13.01,2013-03-24 15:27:00,
2013-03-24 11:28:00,43.4,23.5,29.85,NNE,22,1.0,2.0,45,0.00,,---,0.00,VWS V13.01,2013-03-24 15:28:00,
2013-03-24 11:29:00,43.4,23.5,29.85,WSW,248,1.0,4.0,45,0.00,,---,0.00,VWS V13.01,2013-03-24 15:29:00,
2013-03-24 11:30:00,43.4,23.5,29.85,West,270,0.0,1.0,45,0.00,,---,0.00,VWS V13.01,2013-03-24 15:30:00,
2013-03-24 11:31:00,43.4,23.0,29.85,NNE,22,2.0,5.0,44,0.00,,---,0.00,VWS V13.01,2013-03-24 15:31:00,
2013-03-24 11:32:00,43.4,23.5,29.85,West,270,1.0,2.0,45,0.00,,---,0.00,VWS V13.01,2013-03-24 15:32:00,
2013-03-24 11:33:00,43.4,23.5,29.85,WNW,292,2.0,4.0,45,0.00,,---,0.00,VWS V13.01,2013-03-24 15:33:00,
2013-03-24 11:34:00,43.4,23.0,29.85,West,270,3.0,5.0,44,0.00,,---,0.00,VWS V13.01,2013-03-24 15:34:00,
2013-03-24 11:43:00,43.7,23.8,29.83,NNE,24,0.0,1.0,45,0.00,,---,0.00,VWS V13.01,2013-03-24 15:43:00,
2013-03-24 11:44:00,43.6,23.7,29.83,NW,315,1.0,3.0,45,0.00,,---,0.00,VWS V13.01,2013-03-24 15:44:00,
2013-03-24 11:45:00,43.7,23.2,29.83,WSW,241,0.0,4.0,44,0.00,,---,0.00,VWS V13.01,2013-03-24 15:45:00,
2013-03-24 11:46:00,43.6,23.7,29.83,SW,215,0.0,0.0,45,0.00,,---,0.00,VWS V13.01,2013-03-24 15:46:00,
2013-03-24 11:47:00,43.7,23.8,29.83,SSW,194,0.0,1.0,45,0.00,,---,0.00,VWS V13.01,2013-03-24 15:47:00,
2013-03-24 11:48:00,43.7,23.8,29.83,West,272,4.0,10.0,45,0.00,,---,0.00,VWS V13.01,2013-03-24 15:48:00,
2013-03-24 11:49:00,43.7,23.8,29.83,WSW,253,4.0,5.0,45,0.00,,---,0.00,VWS V13.01,2013-03-24 15:49:00,
2013-03-24 11:54:00,43.7,23.8,29.83,SW,223,1.0,1.0,45,0.00,,---,0.00,VWS V13.01,2013-03-24 15:54:00,
2013-03-24 11:59:00,43.7,23.2,29.83,West,272,2.0,3.0,44,0.00,,---,0.00,VWS V13.01,2013-03-24 15:59:00,
2013-03-24 12:04:00,43.8,23.9,29.83,WNW,292,0.0,0.0,45,0.00,,---,0.00,VWS V13.01,2013-03-24 16:04:00,
2013-03-24 12:09:00,43.9,24.5,29.83,East,96,0.0,0.0,46,0.00,,---,0.00,VWS V13.01,2013-03-24 16:09:00,
2013-03-24 12:14:00,44.3,24.8,29.83,West,281,1.0,1.0,46,0.00,,---,0.00,VWS V13.01,2013-03-24 16:14:00,
2013-03-24 12:19:00,44.8,24.2,29.83,WSW,253,0.0,0.0,44,0.00,,---,0.00,VWS V13.01,2013-03-24 16:19:00,
2013-03-24 12:24:00,45.1,24.5,29.83,South,189,1.0,3.0,44,0.00,,---,0.00,VWS V13.01,2013-03-24 16:24:00,
2013-03-24 12:29:00,45.1,24.5,29.83,West,281,2.0,4.0,44,0.00,,---,0.00,VWS V13.01,2013-03-24 16:29:00,
2013-03-24 12:34:00,45.4,25.3,29.84,SW,227,0.0,1.0,45,0.00,,---,0.00,VWS V13.01,2013-03-24 16:34:00,
2013-03-24 12:39:00,45.9,24.1,29.84,SSW,209,0.0,0.0,42,0.00,,---,0.00,VWS V13.01,2013-03-24 16:39:00,
2013-03-24 12:44:00,45.7,23.9,29.84,WSW,246,2.0,3.0,42,0.00,,---,0.00,VWS V13.01,2013-03-24 16:44:00,
2013-03-24 12:49:00,45.5,23.2,29.84,NE,50,0.0,2.0,41,0.00,,---,0.00,VWS V13.01,2013-03-24 16:49:00,
2013-03-24 12:54:00,45.4,23.7,29.84,SSW,207,1.0,3.0,42,0.00,,---,0.00,VWS V13.01,2013-03-24 16:54:00,
2013-03-24 12:59:00,45.4,24.8,29.84,SW,222,1.0,3.0,44,0.00,,---,0.00,VWS V13.01,2013-03-24 16:59:00,
2013-03-24 13:04:00,45.6,24.4,29.83,SW,215,1.0,1.0,43,0.00,,---,0.00,VWS V13.01,2013-03-24 17:04:00,
2013-03-24 13:09:00,45.9,24.7,29.83,SW,222,0.0,0.0,43,0.00,,---,0.00,VWS V13.01,2013-03-24 17:09:00,
2013-03-24 13:14:00,46.1,23.7,29.82,SSW,202,1.0,2.0,41,0.00,,---,0.00,VWS V13.01,2013-03-24 17:14:00,
2013-03-24 13:19:00,46.0,23.6,29.82,West,270,0.0,2.0,41,0.00,,---,0.00,VWS V13.01,2013-03-24 17:19:00,
2013-03-24 13:24:00,46.1,28.5,29.82,NE,38,3.0,3.0,50,0.00,,---,0.00,VWS V13.01,2013-03-24 17:24:00,
2013-03-24 13:29:00,46.0,29.4,29.81,NNE,16,3.0,4.0,52,0.00,,---,0.00,VWS V13.01,2013-03-24 17:29:00,
2013-03-24 13:34:00,45.9,29.3,29.81,SE,129,2.0,6.0,52,0.00,,---,0.00,VWS V13.01,2013-03-24 17:34:00,
2013-03-24 13:39:00,45.8,28.7,29.81,ESE,119,1.0,4.0,51,0.00,,---,0.00,VWS V13.01,2013-03-24 17:39:00,
2013-03-24 13:44:00,45.5,28.9,29.80,NE,50,6.0,6.0,52,0.00,,---,0.00,VWS V13.01,2013-03-24 17:44:00,
2013-03-24 13:49:00,45.1,29.0,29.79,ENE,69,5.0,7.0,53,0.00,,---,0.00,VWS V13.01,2013-03-24 17:49:00,
2013-03-24 13:54:00,45.2,28.6,29.78,ENE,63,3.0,4.0,52,0.00,,---,0.00,VWS V13.01,2013-03-24 17:54:00,
2013-03-24 13:59:00,44.9,28.8,29.78,NE,42,1.0,5.0,53,0.00,,---,0.00,VWS V13.01,2013-03-24 17:59:00,
2013-03-24 14:04:00,45.0,28.9,29.77,ESE,121,3.0,5.0,53,0.00,,---,0.00,VWS V13.01,2013-03-24 18:04:00,
2013-03-24 14:09:00,44.5,28.0,29.77,SE,128,0.0,2.0,52,0.00,,---,0.00,VWS V13.01,2013-03-24 18:09:00,
2013-03-24 14:14:00,44.1,28.5,29.77,ESE,111,2.0,5.0,54,0.00,,---,0.00,VWS V13.01,2013-03-24 18:14:00,
2013-03-24 14:19:00,44.1,28.5,29.76,ENE,69,4.0,5.0,54,0.00,,---,0.00,VWS V13.01,2013-03-24 18:19:00,
2013-03-24 14:24:00,44.6,28.5,29.76,ENE,67,3.0,7.0,53,0.00,,---,0.00,VWS V13.01,2013-03-24 18:24:00,
2013-03-24 14:29:00,44.9,28.4,29.76,ENE,78,5.0,6.0,52,0.00,,---,0.00,VWS V13.01,2013-03-24 18:29:00,
2013-03-24 14:34:00,44.8,27.3,29.75,NNE,31,7.0,7.0,50,0.00,,---,0.00,VWS V13.01,2013-03-24 18:34:00,
2013-03-24 14:39:00,44.4,26.5,29.74,ESE,113,3.0,5.0,49,0.00,,---,0.00,VWS V13.01,2013-03-24 18:39:00,
2013-03-24 14:44:00,43.8,26.9,29.74,SE,131,6.0,6.0,51,0.00,,---,0.00,VWS V13.01,2013-03-24 18:44:00,
2013-03-24 14:49:00,43.8,27.8,29.74,NE,38,1.0,1.0,53,0.00,,---,0.00,VWS V13.01,2013-03-24 18:49:00,
2013-03-24 14:54:00,43.3,27.8,29.74,SSE,148,4.0,4.0,54,0.00,,---,0.00,VWS V13.01,2013-03-24 18:54:00,
2013-03-24 14:59:00,43.2,28.6,29.74,SE,142,4.0,4.0,56,0.00,,---,0.00,VWS V13.01,2013-03-24 18:59:00,
2013-03-24 15:04:00,43.4,27.9,29.74,East,83,6.0,6.0,54,0.00,,---,0.00,VWS V13.01,2013-03-24 19:04:00,
2013-03-24 15:09:00,43.6,29.0,29.74,ESE,121,2.0,2.0,56,0.00,,---,0.00,VWS V13.01,2013-03-24 19:09:00,
2013-03-24 15:14:00,44.0,28.4,29.73,East,87,5.0,5.0,54,0.00,,---,0.00,VWS V13.01,2013-03-24 19:14:00,
2013-03-24 15:19:00,43.9,27.4,29.72,East,101,0.0,0.0,52,0.00,,---,0.00,VWS V13.01,2013-03-24 19:19:00,
2013-03-24 15:24:00,43.6,28.1,29.72,East,97,4.0,4.0,54,0.00,,---,0.00,VWS V13.01,2013-03-24 19:24:00,
2013-03-24 15:29:00,43.6,28.5,29.73,SE,136,3.0,4.0,55,0.00,,---,0.00,VWS V13.01,2013-03-24 19:29:00,
2013-03-24 15:34:00,43.4,28.8,29.73,East,92,4.0,4.0,56,0.00,,---,0.00,VWS V13.01,2013-03-24 19:34:00,
2013-03-24 15:39:00,43.3,28.7,29.73,South,190,2.0,5.0,56,0.00,,---,0.00,VWS V13.01,2013-03-24 19:39:00,
2013-03-24 15:44:00,43.2,28.6,29.73,East,96,3.0,4.0,56,0.00,,---,0.00,VWS V13.01,2013-03-24 19:44:00,
2013-03-24 15:49:00,43.2,28.1,29.72,SSE,159,0.0,3.0,55,0.00,,---,0.00,VWS V13.01,2013-03-24 19:49:00,
2013-03-24 15:54:00,43.3,28.2,29.72,East,91,5.0,7.0,55,0.00,,---,0.00,VWS V13.01,2013-03-24 19:54:00,
2013-03-24 15:59:00,43.3,27.8,29.71,ESE,115,0.0,2.0,54,0.00,,---,0.00,VWS V13.01,2013-03-24 19:59:00,
2013-03-24 16:04:00,43.4,28.3,29.71,ESE,115,2.0,5.0,55,0.00,,---,0.00,VWS V13.01,2013-03-24 20:04:00,
2013-03-24 16:09:00,43.5,28.4,29.71,SSE,164,0.0,5.0,55,0.00,,---,0.00,VWS V13.01,2013-03-24 20:09:00,
2013-03-24 16:14:00,43.4,28.3,29.71,East,87,6.0,6.0,55,0.00,,---,0.00,VWS V13.01,2013-03-24 20:14:00,
2013-03-24 16:19:00,43.3,28.7,29.71,SE,129,2.0,2.0,56,0.00,,---,0.00,VWS V13.01,2013-03-24 20:19:00,
2013-03-24 16:24:00,43.3,29.1,29.71,SE,141,1.0,5.0,57,0.00,,---,0.00,VWS V13.01,2013-03-24 20:24:00,
2013-03-24 16:29:00,43.2,28.6,29.71,SE,132,0.0,5.0,56,0.00,,---,0.00,VWS V13.01,2013-03-24 20:29:00,
2013-03-24 16:34:00,42.9,28.3,29.71,ESE,119,0.0,1.0,56,0.00,,---,0.00,VWS V13.01,2013-03-24 20:34:00,
2013-03-24 16:39:00,42.8,28.6,29.71,ESE,115,1.0,6.0,57,0.00,,---,0.00,VWS V13.01,2013-03-24 20:39:00,
2013-03-24 16:44:00,42.9,28.7,29.71,ESE,119,1.0,4.0,57,0.00,,---,0.00,VWS V13.01,2013-03-24 20:44:00,
2013-03-24 16:49:00,42.9,29.2,29.71,East,89,3.0,3.0,58,0.00,,---,0.00,VWS V13.01,2013-03-24 20:49:00,
2013-03-24 16:54:00,42.8,29.9,29.71,SSE,153,0.0,1.0,60,0.00,,---,0.00,VWS V13.01,2013-03-24 20:54:00,
2013-03-24 16:59:00,42.6,29.7,29.71,SSE,163,3.0,3.0,60,0.00,,---,0.00,VWS V13.01,2013-03-24 20:59:00,
2013-03-24 17:04:00,42.4,29.5,29.71,SE,128,4.0,7.0,60,0.00,,---,0.00,VWS V13.01,2013-03-24 21:04:00,
2013-03-24 17:09:00,42.2,29.3,29.71,SE,134,1.0,3.0,60,0.00,,---,0.00,VWS V13.01,2013-03-24 21:09:00,
2013-03-24 17:14:00,42.1,29.2,29.71,SW,230,2.0,2.0,60,0.00,,---,0.00,VWS V13.01,2013-03-24 21:14:00,
2013-03-24 17:19:00,42.1,30.0,29.71,SE,132,1.0,5.0,62,0.00,,---,0.00,VWS V13.01,2013-03-24 21:19:00,
2013-03-24 17:24:00,42.0,29.5,29.71,ESE,107,0.0,1.0,61,0.00,,---,0.00,VWS V13.01,2013-03-24 21:24:00,
2013-03-24 17:29:00,42.0,29.9,29.71,ESE,121,2.0,3.0,62,0.00,,---,0.00,VWS V13.01,2013-03-24 21:29:00,
2013-03-24 17:34:00,42.0,29.9,29.71,ESE,115,0.0,3.0,62,0.00,,---,0.00,VWS V13.01,2013-03-24 21:34:00,
2013-03-24 17:39:00,41.9,29.9,29.71,South,177,3.0,3.0,62,0.00,,---,0.00,VWS V13.01,2013-03-24 21:39:00,
2013-03-24 17:44:00,41.9,29.9,29.71,SE,128,0.0,1.0,62,0.00,,---,0.00,VWS V13.01,2013-03-24 21:44:00,
2013-03-24 17:49:00,41.8,29.8,29.71,ESE,107,3.0,4.0,62,0.00,,---,0.00,VWS V13.01,2013-03-24 21:49:00,
2013-03-24 17:54:00,41.6,29.6,29.70,SSE,157,0.0,2.0,62,0.00,,---,0.00,VWS V13.01,2013-03-24 21:54:00,
2013-03-24 17:59:00,41.4,29.8,29.70,SE,128,1.0,1.0,63,0.00,,---,0.00,VWS V13.01,2013-03-24 21:59:00,
2013-03-24 18:04:00,41.2,29.6,29.70,SE,130,1.0,4.0,63,0.00,,---,0.00,VWS V13.01,2013-03-24 22:04:00,
2013-03-24 18:09:00,41.0,29.8,29.70,ESE,105,1.0,5.0,64,0.00,,---,0.00,VWS V13.01,2013-03-24 22:09:00,
2013-03-24 18:14:00,40.9,29.7,29.69,ESE,121,1.0,2.0,64,0.00,,---,0.00,VWS V13.01,2013-03-24 22:14:00,
2013-03-24 18:19:00,40.7,29.5,29.70,SE,129,0.0,1.0,64,0.00,,---,0.00,VWS V13.01,2013-03-24 22:19:00,
2013-03-24 18:24:00,40.6,29.8,29.69,SE,146,0.0,1.0,65,0.00,,---,0.00,VWS V13.01,2013-03-24 22:24:00,
2013-03-24 18:29:00,40.5,29.7,29.70,East,97,1.0,2.0,65,0.00,,---,0.00,VWS V13.01,2013-03-24 22:29:00,
2013-03-24 18:34:00,40.4,29.6,29.70,SSE,151,1.0,2.0,65,0.00,,---,0.00,VWS V13.01,2013-03-24 22:34:00,
2013-03-24 18:39:00,40.3,29.9,29.71,SE,141,0.0,0.0,66,0.00,,---,0.00,VWS V13.01,2013-03-24 22:39:00,
2013-03-24 18:44:00,40.2,29.8,29.72,ESE,111,0.0,2.0,66,0.00,,---,0.00,VWS V13.01,2013-03-24 22:44:00,
2013-03-24 18:49:00,40.1,30.0,29.72,SE,128,4.0,5.0,67,0.00,,---,0.00,VWS V13.01,2013-03-24 22:49:00,
2013-03-24 18:54:00,40.0,29.9,29.72,SE,146,2.0,2.0,67,0.00,,---,0.00,VWS V13.01,2013-03-24 22:54:00,
2013-03-24 18:59:00,40.0,29.6,29.72,SE,125,0.0,2.0,66,0.00,,---,0.00,VWS V13.01,2013-03-24 22:59:00,
2013-03-24 19:04:00,39.9,29.5,29.72,SSE,157,6.0,6.0,66,0.00,,---,0.00,VWS V13.01,2013-03-24 23:04:00,
2013-03-24 19:09:00,39.8,29.8,29.72,SE,129,3.0,4.0,67,0.00,,---,0.00,VWS V13.01,2013-03-24 23:09:00,
2013-03-24 19:14:00,39.7,29.7,29.72,ESE,121,0.0,2.0,67,0.00,,---,0.00,VWS V13.01,2013-03-24 23:14:00,
2013-03-24 19:19:00,39.6,29.9,29.72,East,89,0.0,2.0,68,0.00,,---,0.00,VWS V13.01,2013-03-24 23:19:00,
2013-03-24 19:24:00,39.6,31.3,29.72,ESE,115,1.0,1.0,72,0.00,,---,0.00,VWS V13.01,2013-03-24 23:24:00,
2013-03-24 19:29:00,39.5,29.8,29.73,SE,141,0.0,2.0,68,0.00,,---,0.00,VWS V13.01,2013-03-24 23:29:00,
2013-03-24 19:34:00,39.5,29.8,29.74,SE,126,0.0,1.0,68,0.00,,---,0.00,VWS V13.01,2013-03-24 23:34:00,
2013-03-24 19:39:00,39.5,29.8,29.73,SE,139,0.0,0.0,68,0.00,,---,0.00,VWS V13.01,2013-03-24 23:39:00,
2013-03-24 19:44:00,39.5,29.8,29.73,SE,136,0.0,3.0,68,0.00,,---,0.00,VWS V13.01,2013-03-24 23:44:00,
2013-03-24 19:49:00,39.4,29.7,29.73,SSE,148,2.0,2.0,68,0.00,,---,0.00,VWS V13.01,2013-03-24 23:49:00,
2013-03-24 19:54:00,39.4,29.7,29.73,SE,146,1.0,1.0,68,0.00,,---,0.00,VWS V13.01,2013-03-24 23:54:00,
2013-03-24 19:59:00,39.4,29.7,29.74,SE,130,0.0,1.0,68,0.00,,---,0.00,VWS V13.01,2013-03-24 23:59:00,
2013-03-24 20:04:00,39.4,29.7,29.74,SSE,149,0.0,1.0,68,0.00,,---,0.00,VWS V13.01,2013-03-25 00:04:00,
2013-03-24 20:09:00,39.4,30.1,29.74,SSE,149,0.0,0.0,69,0.00,,---,0.00,VWS V13.01,2013-03-25 00:09:00,
2013-03-24 20:14:00,39.4,30.1,29.73,SE,129,0.0,1.0,69,0.00,,---,0.00,VWS V13.01,2013-03-25 00:14:00,
2013-03-24 20:19:00,39.4,30.1,29.73,South,186,0.0,0.0,69,0.00,,---,0.00,VWS V13.01,2013-03-25 00:19:00,
2013-03-24 20:24:00,39.3,30.0,29.73,SE,137,0.0,3.0,69,0.00,,---,0.00,VWS V13.01,2013-03-25 00:24:00,
2013-03-24 20:29:00,39.3,30.0,29.73,SE,144,0.0,2.0,69,0.00,,---,0.00,VWS V13.01,2013-03-25 00:29:00,
2013-03-24 20:34:00,39.3,30.0,29.73,ESE,119,1.0,1.0,69,0.00,,---,0.00,VWS V13.01,2013-03-25 00:34:00,
2013-03-24 20:39:00,39.3,30.4,29.73,SE,127,0.0,1.0,70,0.00,,---,0.00,VWS V13.01,2013-03-25 00:39:00,
2013-03-24 20:44:00,39.3,30.7,29.73,SSE,158,0.0,2.0,71,0.00,,---,0.00,VWS V13.01,2013-03-25 00:44:00,
2013-03-24 20:49:00,39.3,30.7,29.73,SE,142,1.0,1.0,71,0.00,,---,0.00,VWS V13.01,2013-03-25 00:49:00,
2013-03-24 20:54:00,39.3,30.7,29.73,SE,136,0.0,0.0,71,0.00,,---,0.00,VWS V13.01,2013-03-25 00:54:00,
2013-03-24 20:59:00,39.3,30.7,29.74,SSE,149,0.0,1.0,71,0.00,,---,0.00,VWS V13.01,2013-03-25 00:59:00,
2013-03-24 21:04:00,39.3,30.7,29.74,SE,129,0.0,1.0,71,0.00,,---,0.00,VWS V13.01,2013-03-25 01:04:00,
2013-03-24 21:09:00,39.3,30.4,29.74,SSW,206,0.0,0.0,70,0.00,,---,0.00,VWS V13.01,2013-03-25 01:09:00,
2013-03-24 21:14:00,39.3,30.0,29.74,SE,140,0.0,1.0,69,0.00,,---,0.00,VWS V13.01,2013-03-25 01:14:00,
2013-03-24 21:19:00,39.3,30.4,29.75,SSE,153,0.0,1.0,70,0.00,,---,0.00,VWS V13.01,2013-03-25 01:19:00,
2013-03-24 21:24:00,39.3,30.0,29.75,SE,129,0.0,0.0,69,0.00,,---,0.00,VWS V13.01,2013-03-25 01:24:00,
2013-03-24 21:29:00,39.3,30.4,29.74,SE,136,0.0,0.0,70,0.00,,---,0.00,VWS V13.01,2013-03-25 01:29:00,
2013-03-24 21:34:00,39.3,30.4,29.74,SSW,192,0.0,0.0,70,0.00,,---,0.00,VWS V13.01,2013-03-25 01:34:00,
2013-03-24 21:39:00,39.2,30.2,29.75,SE,137,0.0,0.0,70,0.00,,---,0.00,VWS V13.01,2013-03-25 01:39:00,
2013-03-24 21:44:00,39.2,30.2,29.74,SE,138,0.0,0.0,70,0.00,,---,0.00,VWS V13.01,2013-03-25 01:44:00,
2013-03-24 21:49:00,39.2,30.2,29.74,SSE,150,0.0,1.0,70,0.00,,---,0.00,VWS V13.01,2013-03-25 01:49:00,
2013-03-24 21:54:00,39.2,30.6,29.74,ESE,122,0.0,1.0,71,0.00,,---,0.00,VWS V13.01,2013-03-25 01:54:00,
2013-03-24 21:59:00,39.2,30.6,29.74,SSE,160,0.0,0.0,71,0.00,,---,0.00,VWS V13.01,2013-03-25 01:59:00,
2013-03-24 22:04:00,39.1,30.2,29.73,SSE,150,0.0,0.0,70,0.00,,---,0.00,VWS V13.01,2013-03-25 02:04:00,
2013-03-24 22:09:00,39.1,30.5,29.73,SSE,150,0.0,0.0,71,0.00,,---,0.00,VWS V13.01,2013-03-25 02:09:00,
2013-03-24 22:14:00,39.0,30.4,29.73,South,172,0.0,0.0,71,0.00,,---,0.00,VWS V13.01,2013-03-25 02:14:00,
2013-03-24 22:19:00,39.0,30.4,29.73,SE,133,0.0,0.0,71,0.00,,---,0.00,VWS V13.01,2013-03-25 02:19:00,
2013-03-24 22:24:00,39.0,30.4,29.73,SE,133,0.0,0.0,71,0.00,,---,0.00,VWS V13.01,2013-03-25 02:24:00,
2013-03-24 22:29:00,39.0,30.4,29.72,SE,141,0.0,0.0,71,0.00,,---,0.00,VWS V13.01,2013-03-25 02:29:00,
2013-03-24 22:34:00,38.9,30.3,29.72,SE,141,0.0,0.0,71,0.00,,---,0.00,VWS V13.01,2013-03-25 02:34:00,
2013-03-24 22:39:00,38.9,30.3,29.72,SE,141,0.0,0.0,71,0.00,,---,0.00,VWS V13.01,2013-03-25 02:39:00,
2013-03-24 22:44:00,38.9,30.7,29.72,SE,132,0.0,0.0,72,0.00,,---,0.00,VWS V13.01,2013-03-25 02:44:00,
2013-03-24 22:49:00,38.9,30.7,29.72,SE,132,0.0,0.0,72,0.00,,---,0.00,VWS V13.01,2013-03-25 02:49:00,
2013-03-24 22:54:00,38.9,30.7,29.71,SE,132,0.0,0.0,72,0.00,,---,0.00,VWS V13.01,2013-03-25 02:54:00,
2013-03-24 22:59:00,38.8,30.6,29.71,SE,132,0.0,1.0,72,0.00,,---,0.00,VWS V13.01,2013-03-25 02:59:00,
2013-03-24 23:04:00,38.8,30.6,29.70,SE,131,0.0,0.0,72,0.00,,---,0.00,VWS V13.01,2013-03-25 03:04:00,
2013-03-24 23:09:00,38.8,30.6,29.70,SSE,161,0.0,0.0,72,0.00,,---,0.00,VWS V13.01,2013-03-25 03:09:00,
2013-03-24 23:14:00,38.7,30.8,29.70,SSE,153,0.0,0.0,73,0.00,,---,0.00,VWS V13.01,2013-03-25 03:14:00,
2013-03-24 23:19:00,38.6,30.7,29.70,SSE,153,0.0,0.0,73,0.00,,---,0.00,VWS V13.01,2013-03-25 03:19:00,
2013-03-24 23:24:00,38.6,30.7,29.69,SSE,153,0.0,0.0,73,0.00,,---,0.00,VWS V13.01,2013-03-25 03:24:00,
2013-03-24 23:29:00,38.6,31.0,29.69,SSE,153,0.0,0.0,74,0.00,,---,0.00,VWS V13.01,2013-03-25 03:29:00,
2013-03-24 23:34:00,38.5,31.0,29.69,East,94,0.0,0.0,74,0.00,,---,0.00,VWS V13.01,2013-03-25 03:34:00,
2013-03-24 23:39:00,38.5,31.0,29.69,East,96,0.0,0.0,74,0.00,,---,0.00,VWS V13.01,2013-03-25 03:39:00,
2013-03-24 23:44:00,38.4,30.9,29.68,East,94,0.0,0.0,74,0.00,,---,0.00,VWS V13.01,2013-03-25 03:44:00,
2013-03-24 23:49:00,38.4,30.9,29.68,East,94,0.0,1.0,74,0.00,,---,0.00,VWS V13.01,2013-03-25 03:49:00,
2013-03-24 23:54:00,38.5,31.0,29.68,East,86,0.0,0.0,74,0.00,,---,0.00,VWS V13.01,2013-03-25 03:54:00,
2013-03-24 23:59:00,38.6,31.0,29.67,East,85,2.0,2.0,74,0.00,,---,0.00,VWS V13.01,2013-03-25 03:59:00,